Time,TemperatureF,DewpointF,PressureIn,WindDirection,WindDirectionDegrees,WindSpeedMPH,WindSpeedGustMPH,Humidity,HourlyPrecipIn,Conditions,Clouds,dailyrainin,SoftwareType,DateUTC
2013-07-01 00:00:00,56.3,51.5,28.85,WNW,292,0.0,0.0,84,0.00,CLR,,0.00,WeatherDisplay:10.37,2013-07-01 05:00:00,
2013-07-01 00:01:00,56.3,51.5,28.85,WNW,292,0.0,0.0,84,0.00,CLR,,0.00,WeatherDisplay:10.37,2013-07-01 05:01:00,
2013-07-01 00:04:00,56.3,51.5,28.85,West,270,0.0,0.0,84,0.00,CLR,,0.00,WeatherDisplay:10.37,2013-07-01 05:04:00,
2013-07-01 00:05:00,56.3,51.5,28.85,West,270,0.0,0.0,84,0.00,CLR,,0.00,WeatherDisplay:10.37,2013-07-01 05:05:00,
2013-07-01 00:06:00,56.3,51.5,28.85,West,270,0.0,0.0,84,0.00,CLR,,0.00,WeatherDisplay:10.37,2013-07-01 05:06:00,
2013-07-01 00:09:00,56.1,51.4,28.85,NW,315,0.0,0.0,84,0.00,CLR,,0.00,WeatherDisplay:10.37,2013-07-01 05:09:00,
2013-07-01 00:10:00,56.1,51.4,28.85,NW,315,0.0,0.0,84,0.00,CLR,,0.00,WeatherDisplay:10.37,2013-07-01 05:10:00,
2013-07-01 00:13:00,55.9,51.2,28.85,NW,315,0.0,0.0,84,0.00,CLR,,0.00,WeatherDisplay:10.37,2013-07-01 05:13:00,
2013-07-01 00:14:00,55.9,51.2,28.85,NW,315,0.0,0.0,84,0.00,CLR,,0.00,WeatherDisplay:10.37,2013-07-01 05:14:00,
2013-07-01 00:15:00,55.9,51.2,28.85,NW,315,0.0,0.0,84,0.00,CLR,,0.00,WeatherDisplay:10.37,2013-07-01 05:15:00,
2013-07-01 00:16:00,55.9,51.2,28.85,NW,315,0.0,0.0,84,0.00,CLR,,0.00,WeatherDisplay:10.37,2013-07-01 05:16:00,
2013-07-01 00:18:00,55.9,51.2,28.85,NW,315,0.0,0.0,84,0.00,CLR,,0.00,WeatherDisplay:10.37,2013-07-01 05:18:00,
2013-07-01 00:20:00,55.9,51.2,28.85,NW,315,0.0,0.0,84,0.00,CLR,,0.00,WeatherDisplay:10.37,2013-07-01 05:20:00,
2013-07-01 00:21:00,55.9,51.2,28.85,NW,315,0.0,0.0,84,0.00,CLR,,0.00,WeatherDisplay:10.37,2013-07-01 05:21:00,
2013-07-01 00:22:00,55.9,51.2,28.85,NW,315,0.0,0.0,84,0.00,CLR,,0.00,WeatherDisplay:10.37,2013-07-01 05:22:00,
2013-07-01 00:23:00,55.8,51.0,28.85,NW,315,0.0,0.0,84,0.00,CLR,,0.00,WeatherDisplay:10.37,2013-07-01 05:23:00,
2013-07-01 00:25:00,55.8,51.3,28.85,NW,315,0.0,0.0,85,0.00,CLR,,0.00,WeatherDisplay:10.37,2013-07-01 05:25:00,
2013-07-01 00:26:00,55.8,51.3,28.85,NW,315,0.0,0.0,85,0.00,CLR,,0.00,WeatherDisplay:10.37,2013-07-01 05:26:00,
2013-07-01 00:27:00,55.8,51.3,28.85,NW,315,0.0,0.0,85,0.00,CLR,,0.00,WeatherDisplay:10.37,2013-07-01 05:27:00,
2013-07-01 00:28:00,55.6,51.1,28.85,NW,315,0.0,0.0,85,0.00,CLR,,0.00,WeatherDisplay:10.37,2013-07-01 05:28:00,
2013-07-01 00:30:00,55.6,51.5,28.85,NW,315,0.0,0.0,86,0.00,CLR,,0.00,WeatherDisplay:10.37,2013-07-01 05:30:00,
2013-07-01 00:31:00,55.6,51.5,28.85,NW,315,0.0,0.0,86,0.00,CLR,,0.00,WeatherDisplay:10.37,2013-07-01 05:31:00,
2013-07-01 00:32:00,55.6,51.1,28.85,NW,315,0.0,0.0,85,0.00,CLR,,0.00,WeatherDisplay:10.37,2013-07-01 05:32:00,
2013-07-01 00:33:00,55.6,51.1,28.85,NW,315,0.0,0.0,85,0.00,CLR,,0.00,WeatherDisplay:10.37,2013-07-01 05:33:00,
2013-07-01 00:36:00,55.4,51.3,28.85,NW,315,0.0,0.0,86,0.00,CLR,,0.00,WeatherDisplay:10.37,2013-07-01 05:36:00,
2013-07-01 00:37:00,55.4,51.3,28.85,NW,315,0.0,0.0,86,0.00,CLR,,0.00,WeatherDisplay:10.37,2013-07-01 05:37:00,
2013-07-01 00:39:00,55.2,51.1,28.85,West,270,0.0,0.0,86,0.00,CLR,,0.00,WeatherDisplay:10.37,2013-07-01 05:39:00,
2013-07-01 00:41:00,55.4,51.3,28.88,West,270,0.0,0.0,86,0.00,CLR,,0.00,WeatherDisplay:10.37,2013-07-01 05:41:00,
2013-07-01 00:42:00,55.4,51.3,28.88,West,270,0.0,0.0,86,0.00,CLR,,0.00,WeatherDisplay:10.37,2013-07-01 05:42:00,
2013-07-01 00:43:00,55.4,51.3,28.88,West,270,0.0,0.0,86,0.00,CLR,,0.00,WeatherDisplay:10.37,2013-07-01 05:43:00,
2013-07-01 00:44:00,55.4,51.3,28.88,West,270,0.0,0.0,86,0.00,CLR,,0.00,WeatherDisplay:10.37,2013-07-01 05:44:00,
2013-07-01 00:47:00,55.2,51.4,28.88,West,270,0.0,0.0,87,0.00,CLR,,0.00,WeatherDisplay:10.37,2013-07-01 05:47:00,
2013-07-01 00:48:00,55.2,51.4,28.88,West,270,0.0,0.0,87,0.00,CLR,,0.00,WeatherDisplay:10.37,2013-07-01 05:48:00,
2013-07-01 00:50:00,55.2,51.4,28.88,West,270,0.0,0.0,87,0.00,CLR,,0.00,WeatherDisplay:10.37,2013-07-01 05:50:00,
2013-07-01 00:52:00,55.2,51.4,28.88,West,270,0.0,0.0,87,0.00,CLR,,0.00,WeatherDisplay:10.37,2013-07-01 05:52:00,
2013-07-01 00:53:00,55.2,51.4,28.88,West,270,0.0,0.0,87,0.00,CLR,,0.00,WeatherDisplay:10.37,2013-07-01 05:53:00,
2013-07-01 00:55:00,55.0,51.2,28.85,West,270,0.0,0.0,87,0.00,CLR,,0.00,WeatherDisplay:10.37,2013-07-01 05:55:00,
2013-07-01 00:57:00,55.0,50.9,28.85,West,270,0.0,0.0,86,0.00,CLR,,0.00,WeatherDisplay:10.37,2013-07-01 05:57:00,
2013-07-01 00:58:00,55.0,51.2,28.85,West,270,0.0,0.0,87,0.00,CLR,,0.00,WeatherDisplay:10.37,2013-07-01 05:58:00,
2013-07-01 00:59:00,55.0,51.2,28.85,West,270,0.0,0.0,87,0.00,CLR,,0.00,WeatherDisplay:10.37,2013-07-01 05:59:00,
2013-07-01 01:01:00,55.0,51.2,28.85,West,270,0.0,0.0,87,0.00,CLR,,0.00,WeatherDisplay:10.37,2013-07-01 06:01:00,
2013-07-01 01:02:00,54.9,50.8,28.85,West,270,0.0,0.0,86,0.00,CLR,,0.00,WeatherDisplay:10.37,2013-07-01 06:02:00,
2013-07-01 01:03:00,54.9,50.8,28.85,West,270,0.0,0.0,86,0.00,CLR,,0.00,WeatherDisplay:10.37,2013-07-01 06:03:00,
2013-07-01 01:04:00,54.9,51.1,28.85,WNW,292,0.0,0.0,87,0.00,CLR,,0.00,WeatherDisplay:10.37,2013-07-01 06:04:00,
2013-07-01 01:06:00,54.9,50.8,28.85,NW,315,0.0,0.0,86,0.00,CLR,,0.00,WeatherDisplay:10.37,2013-07-01 06:06:00,
2013-07-01 01:08:00,54.9,51.1,28.85,WNW,292,0.0,0.0,87,0.00,CLR,,0.00,WeatherDisplay:10.37,2013-07-01 06:08:00,
2013-07-01 01:09:00,54.7,50.9,28.88,WNW,292,0.0,0.0,87,0.00,CLR,,0.00,WeatherDisplay:10.37,2013-07-01 06:09:00,
2013-07-01 01:11:00,54.7,50.9,28.88,WNW,292,0.0,0.0,87,0.00,CLR,,0.00,WeatherDisplay:10.37,2013-07-01 06:11:00,
2013-07-01 01:13:00,54.7,51.2,28.88,WNW,292,0.0,0.0,88,0.00,CLR,,0.00,WeatherDisplay:10.37,2013-07-01 06:13:00,
2013-07-01 01:15:00,54.6,51.1,28.88,WNW,294,0.0,0.0,88,0.00,CLR,,0.00,WeatherDisplay:10.37,2013-07-01 06:15:00,
2013-07-01 01:16:00,54.5,51.0,28.88,West,270,0.0,0.0,88,0.00,CLR,,0.00,WeatherDisplay:10.37,2013-07-01 06:16:00,
2013-07-01 01:18:00,54.5,51.0,28.88,WNW,292,0.0,0.0,88,0.00,CLR,,0.00,WeatherDisplay:10.37,2013-07-01 06:18:00,
2013-07-01 01:19:00,54.5,51.0,28.88,WNW,292,0.0,0.0,88,0.00,CLR,,0.00,WeatherDisplay:10.37,2013-07-01 06:19:00,
2013-07-01 01:20:00,54.5,51.0,28.88,WNW,292,0.0,0.0,88,0.00,CLR,,0.00,WeatherDisplay:10.37,2013-07-01 06:20:00,
2013-07-01 01:22:00,54.5,51.0,28.88,WNW,292,0.0,0.0,88,0.00,CLR,,0.00,WeatherDisplay:10.37,2013-07-01 06:22:00,
2013-07-01 01:23:00,54.5,51.0,28.88,NW,315,0.0,0.0,88,0.00,CLR,,0.00,WeatherDisplay:10.37,2013-07-01 06:23:00,
2013-07-01 01:24:00,54.5,51.0,28.88,WNW,292,0.0,0.0,88,0.00,CLR,,0.00,WeatherDisplay:10.37,2013-07-01 06:24:00,
2013-07-01 01:25:00,54.5,51.0,28.88,WNW,292,0.0,0.0,88,0.00,CLR,,0.00,WeatherDisplay:10.37,2013-07-01 06:25:00,
2013-07-01 01:26:00,54.5,51.0,28.88,West,270,0.0,0.0,88,0.00,CLR,,0.00,WeatherDisplay:10.37,2013-07-01 06:26:00,
2013-07-01 01:27:00,54.5,51.0,28.88,WNW,292,0.0,0.0,88,0.00,CLR,,0.00,WeatherDisplay:10.37,2013-07-01 06:27:00,
2013-07-01 01:28:00,54.5,51.0,28.88,WNW,292,0.0,0.0,88,0.00,CLR,,0.00,WeatherDisplay:10.37,2013-07-01 06:28:00,
2013-07-01 01:29:00,54.5,51.3,28.88,WNW,292,0.0,0.0,89,0.00,CLR,,0.00,WeatherDisplay:10.37,2013-07-01 06:29:00,
2013-07-01 01:30:00,54.5,51.3,28.88,WNW,292,0.0,0.0,89,0.00,CLR,,0.00,WeatherDisplay:10.37,2013-07-01 06:30:00,
2013-07-01 01:31:00,54.5,51.3,28.88,WNW,292,0.0,0.0,89,0.00,CLR,,0.00,WeatherDisplay:10.37,2013-07-01 06:31:00,
2013-07-01 01:33:00,54.5,51.3,28.88,West,270,0.0,0.0,89,0.00,CLR,,0.00,WeatherDisplay:10.37,2013-07-01 06:33:00,
2013-07-01 01:34:00,54.5,51.3,28.88,WNW,292,0.0,0.0,89,0.00,CLR,,0.00,WeatherDisplay:10.37,2013-07-01 06:34:00,
2013-07-01 01:36:00,54.5,51.3,28.88,WNW,292,0.0,0.0,89,0.00,CLR,,0.00,WeatherDisplay:10.37,2013-07-01 06:36:00,
2013-07-01 01:37:00,54.3,51.1,28.88,WNW,292,0.0,0.0,89,0.00,CLR,,0.00,WeatherDisplay:10.37,2013-07-01 06:37:00,
2013-07-01 01:38:00,54.3,51.1,28.88,WNW,292,0.0,0.0,89,0.00,CLR,,0.00,WeatherDisplay:10.37,2013-07-01 06:38:00,
2013-07-01 01:39:00,54.3,51.1,28.88,WNW,292,0.0,0.0,89,0.00,CLR,,0.00,WeatherDisplay:10.37,2013-07-01 06:39:00,
2013-07-01 01:42:00,54.3,51.1,28.88,WNW,292,0.0,0.0,89,0.00,CLR,,0.00,WeatherDisplay:10.37,2013-07-01 06:42:00,
2013-07-01 01:44:00,54.3,51.1,28.88,WNW,292,0.0,0.0,89,0.00,CLR,,0.00,WeatherDisplay:10.37,2013-07-01 06:44:00,
2013-07-01 01:45:00,54.1,51.0,28.88,WNW,292,0.0,0.0,89,0.00,CLR,,0.00,WeatherDisplay:10.37,2013-07-01 06:45:00,
2013-07-01 01:47:00,54.1,51.0,28.88,NW,315,0.0,0.0,89,0.00,CLR,,0.00,WeatherDisplay:10.37,2013-07-01 06:47:00,
2013-07-01 01:48:00,54.1,51.0,28.88,WNW,292,0.0,0.0,89,0.00,CLR,,0.00,WeatherDisplay:10.37,2013-07-01 06:48:00,
2013-07-01 01:49:00,54.1,51.0,28.88,West,270,0.0,0.0,89,0.00,CLR,,0.00,WeatherDisplay:10.37,2013-07-01 06:49:00,
2013-07-01 01:50:00,54.1,51.0,28.88,West,270,0.0,0.0,89,0.00,CLR,,0.00,WeatherDisplay:10.37,2013-07-01 06:50:00,
2013-07-01 01:52:00,54.1,51.0,28.88,West,270,0.0,0.0,89,0.00,CLR,,0.00,WeatherDisplay:10.37,2013-07-01 06:52:00,
2013-07-01 01:53:00,54.1,51.0,28.88,West,270,0.0,0.0,89,0.00,CLR,,0.00,WeatherDisplay:10.37,2013-07-01 06:53:00,
2013-07-01 01:54:00,54.1,51.0,28.88,West,270,0.0,0.0,89,0.00,CLR,,0.00,WeatherDisplay:10.37,2013-07-01 06:54:00,
2013-07-01 01:55:00,54.1,51.0,28.88,WNW,292,0.0,0.0,89,0.00,CLR,,0.00,WeatherDisplay:10.37,2013-07-01 06:55:00,
2013-07-01 01:56:00,54.1,51.3,28.88,WNW,292,0.0,0.0,90,0.00,CLR,,0.00,WeatherDisplay:10.37,2013-07-01 06:56:00,
2013-07-01 01:58:00,54.1,51.3,28.88,West,270,0.0,0.0,90,0.00,CLR,,0.00,WeatherDisplay:10.37,2013-07-01 06:58:00,
2013-07-01 01:59:00,54.1,51.3,28.88,West,270,0.0,0.0,90,0.00,CLR,,0.00,WeatherDisplay:10.37,2013-07-01 06:59:00,
2013-07-01 02:01:00,54.1,51.3,28.88,WNW,292,0.0,0.0,90,0.00,CLR,,0.00,WeatherDisplay:10.37,2013-07-01 07:01:00,
2013-07-01 02:04:00,54.0,51.1,28.88,WNW,292,0.0,0.0,90,0.00,CLR,,0.00,WeatherDisplay:10.37,2013-07-01 07:04:00,
2013-07-01 02:05:00,54.0,51.1,28.88,WNW,289,0.0,0.0,90,0.00,CLR,,0.00,WeatherDisplay:10.37,2013-07-01 07:05:00,
2013-07-01 02:06:00,54.0,51.1,28.88,NW,315,0.0,0.0,90,0.00,CLR,,0.00,WeatherDisplay:10.37,2013-07-01 07:06:00,
2013-07-01 02:09:00,54.0,51.1,28.88,NW,315,0.0,0.0,90,0.00,CLR,,0.00,WeatherDisplay:10.37,2013-07-01 07:09:00,
2013-07-01 02:10:00,54.0,51.1,28.88,NW,315,0.0,0.0,90,0.00,CLR,,0.00,WeatherDisplay:10.37,2013-07-01 07:10:00,
2013-07-01 02:11:00,54.0,51.4,28.88,NW,315,0.0,0.0,91,0.00,CLR,,0.00,WeatherDisplay:10.37,2013-07-01 07:11:00,
2013-07-01 02:12:00,53.8,51.2,28.88,NW,315,0.0,0.0,91,0.00,CLR,,0.00,WeatherDisplay:10.37,2013-07-01 07:12:00,
2013-07-01 02:15:00,53.8,51.2,28.88,NW,315,0.0,0.0,91,0.00,CLR,,0.00,WeatherDisplay:10.37,2013-07-01 07:15:00,
2013-07-01 02:16:00,53.8,51.2,28.88,NW,315,0.0,0.0,91,0.00,CLR,,0.00,WeatherDisplay:10.37,2013-07-01 07:16:00,
2013-07-01 02:17:00,53.8,51.2,28.88,NW,315,0.0,0.0,91,0.00,CLR,,0.00,WeatherDisplay:10.37,2013-07-01 07:17:00,
2013-07-01 02:20:00,53.6,51.0,28.88,NW,315,0.0,0.0,91,0.00,CLR,,0.00,WeatherDisplay:10.37,2013-07-01 07:20:00,
2013-07-01 02:21:00,53.6,50.7,28.88,NW,315,0.0,0.0,90,0.00,CLR,,0.00,WeatherDisplay:10.37,2013-07-01 07:21:00,
2013-07-01 02:23:00,53.6,50.7,28.88,NW,315,0.0,0.0,90,0.00,CLR,,0.00,WeatherDisplay:10.37,2013-07-01 07:23:00,
2013-07-01 02:25:00,53.6,50.7,28.88,NW,315,0.0,0.0,90,0.00,CLR,,0.00,WeatherDisplay:10.37,2013-07-01 07:25:00,
2013-07-01 02:26:00,53.6,50.7,28.88,NW,315,0.0,0.0,90,0.00,CLR,,0.00,WeatherDisplay:10.37,2013-07-01 07:26:00,
2013-07-01 02:27:00,53.4,50.9,28.88,NW,315,0.0,0.0,91,0.00,CLR,,0.00,WeatherDisplay:10.37,2013-07-01 07:27:00,
2013-07-01 02:28:00,53.4,50.9,28.88,West,270,0.0,0.0,91,0.00,CLR,,0.00,WeatherDisplay:10.37,2013-07-01 07:28:00,
2013-07-01 02:30:00,53.4,50.9,28.88,West,270,0.0,0.0,91,0.00,CLR,,0.00,WeatherDisplay:10.37,2013-07-01 07:30:00,
2013-07-01 02:31:00,53.4,50.9,28.88,WNW,292,0.0,0.0,91,0.00,CLR,,0.00,WeatherDisplay:10.37,2013-07-01 07:31:00,
2013-07-01 02:32:00,53.4,50.9,28.88,WNW,292,0.0,0.0,91,0.00,CLR,,0.00,WeatherDisplay:10.37,2013-07-01 07:32:00,
2013-07-01 02:33:00,53.4,50.9,28.88,NW,315,0.0,0.0,91,0.00,CLR,,0.00,WeatherDisplay:10.37,2013-07-01 07:33:00,
2013-07-01 02:35:00,53.6,51.0,28.88,NW,315,0.0,0.0,91,0.00,CLR,,0.00,WeatherDisplay:10.37,2013-07-01 07:35:00,
2013-07-01 02:37:00,53.4,50.9,28.88,NW,315,0.0,0.0,91,0.00,CLR,,0.00,WeatherDisplay:10.37,2013-07-01 07:37:00,
2013-07-01 02:38:00,53.4,50.9,28.88,WNW,292,0.0,0.0,91,0.00,CLR,,0.00,WeatherDisplay:10.37,2013-07-01 07:38:00,
2013-07-01 02:41:00,53.4,50.9,28.88,NW,315,0.0,0.0,91,0.00,CLR,,0.00,WeatherDisplay:10.37,2013-07-01 07:41:00,
2013-07-01 02:42:00,53.2,50.7,28.88,NW,315,0.0,0.0,91,0.00,CLR,,0.00,WeatherDisplay:10.37,2013-07-01 07:42:00,
2013-07-01 02:43:00,53.2,50.7,28.88,NW,315,0.0,0.0,91,0.00,CLR,,0.00,WeatherDisplay:10.37,2013-07-01 07:43:00,
2013-07-01 02:44:00,53.2,50.7,28.88,NW,315,0.0,0.0,91,0.00,CLR,,0.00,WeatherDisplay:10.37,2013-07-01 07:44:00,
2013-07-01 02:46:00,53.2,51.0,28.88,NW,315,0.0,0.0,92,0.00,CLR,,0.00,WeatherDisplay:10.37,2013-07-01 07:46:00,
2013-07-01 02:48:00,53.2,51.0,28.88,NW,315,0.0,0.0,92,0.00,CLR,,0.00,WeatherDisplay:10.37,2013-07-01 07:48:00,
2013-07-01 02:49:00,53.2,51.0,28.88,NW,315,0.0,0.0,92,0.00,CLR,,0.00,WeatherDisplay:10.37,2013-07-01 07:49:00,
2013-07-01 02:52:00,53.1,50.8,28.88,NW,315,0.0,0.0,92,0.00,CLR,,0.00,WeatherDisplay:10.37,2013-07-01 07:52:00,
2013-07-01 02:54:00,53.1,50.8,28.88,NW,315,0.0,0.0,92,0.00,CLR,,0.00,WeatherDisplay:10.37,2013-07-01 07:54:00,
2013-07-01 02:57:00,53.1,50.8,28.88,NW,315,0.0,0.0,92,0.00,CLR,,0.00,WeatherDisplay:10.37,2013-07-01 07:57:00,
2013-07-01 02:59:00,53.1,50.8,28.88,NW,315,0.0,0.0,92,0.00,CLR,,0.00,WeatherDisplay:10.37,2013-07-01 07:59:00,
2013-07-01 03:00:00,53.1,50.8,28.88,NW,315,0.0,0.0,92,0.00,CLR,,0.00,WeatherDisplay:10.37,2013-07-01 08:00:00,
2013-07-01 03:02:00,53.1,50.8,28.88,NW,315,0.0,0.0,92,0.00,CLR,,0.00,WeatherDisplay:10.37,2013-07-01 08:02:00,
2013-07-01 03:05:00,53.1,50.8,28.88,WNW,292,0.0,0.0,92,0.00,CLR,,0.00,WeatherDisplay:10.37,2013-07-01 08:05:00,
2013-07-01 03:06:00,53.1,50.8,28.88,WNW,292,0.0,0.0,92,0.00,CLR,,0.00,WeatherDisplay:10.37,2013-07-01 08:06:00,
2013-07-01 03:08:00,53.1,50.8,28.88,WNW,292,0.0,0.0,92,0.00,CLR,,0.00,WeatherDisplay:10.37,2013-07-01 08:08:00,
2013-07-01 03:10:00,53.1,50.8,28.88,WNW,292,0.0,0.0,92,0.00,CLR,,0.00,WeatherDisplay:10.37,2013-07-01 08:10:00,
2013-07-01 03:11:00,53.2,51.0,28.88,WNW,292,0.0,0.0,92,0.00,CLR,,0.00,WeatherDisplay:10.37,2013-07-01 08:11:00,
2013-07-01 03:12:00,53.2,51.3,28.88,WNW,292,0.0,0.0,93,0.00,CLR,,0.00,WeatherDisplay:10.37,2013-07-01 08:12:00,
2013-07-01 03:14:00,53.1,51.1,28.88,WNW,292,0.0,0.0,93,0.00,CLR,,0.00,WeatherDisplay:10.37,2013-07-01 08:14:00,
2013-07-01 03:15:00,53.1,51.1,28.88,WNW,292,0.0,0.0,93,0.00,CLR,,0.00,WeatherDisplay:10.37,2013-07-01 08:15:00,
2013-07-01 03:16:00,53.1,51.1,28.88,WNW,292,0.0,0.0,93,0.00,CLR,,0.00,WeatherDisplay:10.37,2013-07-01 08:16:00,
2013-07-01 03:17:00,53.1,51.1,28.88,WNW,292,0.0,0.0,93,0.00,CLR,,0.00,WeatherDisplay:10.37,2013-07-01 08:17:00,
2013-07-01 03:19:00,53.1,51.1,28.88,WNW,292,0.0,0.0,93,0.00,CLR,,0.00,WeatherDisplay:10.37,2013-07-01 08:19:00,
2013-07-01 03:20:00,53.1,50.8,28.88,WNW,292,0.0,0.0,92,0.00,CLR,,0.00,WeatherDisplay:10.37,2013-07-01 08:20:00,
2013-07-01 03:21:00,53.1,50.8,28.88,West,270,0.0,0.0,92,0.00,CLR,,0.00,WeatherDisplay:10.37,2013-07-01 08:21:00,
2013-07-01 03:23:00,53.1,50.8,28.88,West,270,0.0,1.2,92,0.00,CLR,,0.00,WeatherDisplay:10.37,2013-07-01 08:23:00,
2013-07-01 03:24:00,53.1,50.8,28.88,West,270,0.0,0.0,92,0.00,CLR,,0.00,WeatherDisplay:10.37,2013-07-01 08:24:00,
2013-07-01 03:25:00,53.1,50.8,28.88,West,270,0.0,0.0,92,0.00,CLR,,0.00,WeatherDisplay:10.37,2013-07-01 08:25:00,
2013-07-01 03:26:00,53.1,50.8,28.88,West,270,0.0,0.0,92,0.00,CLR,,0.00,WeatherDisplay:10.37,2013-07-01 08:26:00,
2013-07-01 03:27:00,53.1,50.8,28.88,West,270,0.0,0.0,92,0.00,CLR,,0.00,WeatherDisplay:10.37,2013-07-01 08:27:00,
2013-07-01 03:28:00,53.1,51.1,28.88,West,270,0.0,0.0,93,0.00,CLR,,0.00,WeatherDisplay:10.37,2013-07-01 08:28:00,
2013-07-01 03:30:00,53.1,51.1,28.88,West,270,0.0,0.0,93,0.00,CLR,,0.00,WeatherDisplay:10.37,2013-07-01 08:30:00,
2013-07-01 03:31:00,53.1,51.1,28.88,West,270,0.0,0.0,93,0.00,CLR,,0.00,WeatherDisplay:10.37,2013-07-01 08:31:00,
2013-07-01 03:32:00,53.1,51.1,28.88,West,270,0.0,0.0,93,0.00,CLR,,0.00,WeatherDisplay:10.37,2013-07-01 08:32:00,
2013-07-01 03:33:00,52.9,50.9,28.88,West,270,0.0,0.0,93,0.00,CLR,,0.00,WeatherDisplay:10.37,2013-07-01 08:33:00,
2013-07-01 03:35:00,52.9,50.9,28.88,West,270,0.0,0.0,93,0.00,CLR,,0.00,WeatherDisplay:10.37,2013-07-01 08:35:00,
2013-07-01 03:36:00,52.9,50.9,28.88,West,270,0.0,0.0,93,0.00,CLR,,0.00,WeatherDisplay:10.37,2013-07-01 08:36:00,
2013-07-01 03:38:00,52.7,50.7,28.88,West,270,0.0,0.0,93,0.00,CLR,,0.00,WeatherDisplay:10.37,2013-07-01 08:38:00,
2013-07-01 03:40:00,52.7,50.7,28.88,West,270,0.0,0.0,93,0.00,CLR,,0.00,WeatherDisplay:10.37,2013-07-01 08:40:00,
2013-07-01 03:41:00,52.7,50.7,28.88,West,270,0.0,0.0,93,0.00,CLR,,0.00,WeatherDisplay:10.37,2013-07-01 08:41:00,
2013-07-01 03:43:00,52.7,50.7,28.88,West,270,0.0,0.0,93,0.00,CLR,,0.00,WeatherDisplay:10.37,2013-07-01 08:43:00,
2013-07-01 03:45:00,52.5,50.6,28.88,West,270,0.0,0.0,93,0.00,CLR,,0.00,WeatherDisplay:10.37,2013-07-01 08:45:00,
2013-07-01 03:46:00,52.5,50.6,28.88,West,270,0.0,0.0,93,0.00,CLR,,0.00,WeatherDisplay:10.37,2013-07-01 08:46:00,
2013-07-01 03:48:00,52.5,50.6,28.88,West,270,0.0,0.0,93,0.00,CLR,,0.00,WeatherDisplay:10.37,2013-07-01 08:48:00,
2013-07-01 03:49:00,52.5,50.6,28.88,West,270,0.0,0.0,93,0.00,CLR,,0.00,WeatherDisplay:10.37,2013-07-01 08:49:00,
2013-07-01 03:51:00,52.5,50.6,28.88,West,270,0.0,0.0,93,0.00,CLR,,0.00,WeatherDisplay:10.37,2013-07-01 08:51:00,
2013-07-01 03:52:00,52.5,50.6,28.88,West,270,0.0,0.0,93,0.00,CLR,,0.00,WeatherDisplay:10.37,2013-07-01 08:52:00,
2013-07-01 03:54:00,52.3,50.4,28.88,West,270,0.0,0.0,93,0.00,CLR,,0.00,WeatherDisplay:10.37,2013-07-01 08:54:00,
2013-07-01 03:57:00,52.3,50.1,28.88,NW,315,0.0,0.0,92,0.00,CLR,,0.00,WeatherDisplay:10.37,2013-07-01 08:57:00,
2013-07-01 03:59:00,52.3,50.1,28.88,NW,315,0.0,0.0,92,0.00,CLR,,0.00,WeatherDisplay:10.37,2013-07-01 08:59:00,
2013-07-01 04:00:00,52.3,50.4,28.88,NW,315,0.0,0.0,93,0.00,CLR,,0.00,WeatherDisplay:10.37,2013-07-01 09:00:00,
2013-07-01 04:02:00,52.3,50.4,28.88,NW,315,0.0,0.0,93,0.00,CLR,,0.00,WeatherDisplay:10.37,2013-07-01 09:02:00,
2013-07-01 04:05:00,52.3,50.4,28.88,NW,315,0.0,0.0,93,0.00,CLR,,0.00,WeatherDisplay:10.37,2013-07-01 09:05:00,
2013-07-01 04:08:00,52.3,50.4,28.88,NW,315,0.0,0.0,93,0.00,CLR,,0.00,WeatherDisplay:10.37,2013-07-01 09:08:00,
2013-07-01 04:09:00,52.3,50.4,28.88,WNW,292,0.0,0.0,93,0.00,CLR,,0.00,WeatherDisplay:10.37,2013-07-01 09:09:00,
2013-07-01 04:10:00,52.3,50.4,28.91,WNW,292,0.0,0.0,93,0.00,CLR,,0.00,WeatherDisplay:10.37,2013-07-01 09:10:00,
2013-07-01 04:11:00,52.3,50.4,28.91,WNW,292,0.0,0.0,93,0.00,CLR,,0.00,WeatherDisplay:10.37,2013-07-01 09:11:00,
2013-07-01 04:13:00,52.3,50.4,28.91,WNW,292,0.0,0.0,93,0.00,CLR,,0.00,WeatherDisplay:10.37,2013-07-01 09:13:00,
2013-07-01 04:15:00,52.2,50.2,28.91,WNW,297,0.0,0.0,93,0.00,CLR,,0.00,WeatherDisplay:10.37,2013-07-01 09:15:00,
2013-07-01 04:17:00,52.2,50.2,28.91,WNW,292,0.0,0.0,93,0.00,CLR,,0.00,WeatherDisplay:10.37,2013-07-01 09:17:00,
2013-07-01 04:18:00,52.2,50.2,28.91,WNW,292,0.0,0.0,93,0.00,CLR,,0.00,WeatherDisplay:10.37,2013-07-01 09:18:00,
2013-07-01 04:19:00,52.2,50.2,28.91,WNW,292,0.0,0.0,93,0.00,CLR,,0.00,WeatherDisplay:10.37,2013-07-01 09:19:00,
2013-07-01 04:20:00,52.0,50.0,28.91,WNW,292,0.0,0.0,93,0.00,CLR,,0.00,WeatherDisplay:10.37,2013-07-01 09:20:00,
2013-07-01 04:22:00,52.0,50.0,28.91,WNW,292,0.0,0.0,93,0.00,CLR,,0.00,WeatherDisplay:10.37,2013-07-01 09:22:00,
2013-07-01 04:24:00,52.0,50.0,28.91,WNW,292,0.0,0.0,93,0.00,CLR,,0.00,WeatherDisplay:10.37,2013-07-01 09:24:00,
2013-07-01 04:25:00,52.0,50.0,28.91,WNW,292,0.0,0.0,93,0.00,CLR,,0.00,WeatherDisplay:10.37,2013-07-01 09:25:00,
2013-07-01 04:27:00,52.0,50.0,28.91,WNW,292,0.0,0.0,93,0.00,CLR,,0.00,WeatherDisplay:10.37,2013-07-01 09:27:00,
2013-07-01 04:28:00,52.0,50.0,28.91,WNW,292,0.0,0.0,93,0.00,CLR,,0.00,WeatherDisplay:10.37,2013-07-01 09:28:00,
2013-07-01 04:29:00,52.0,50.0,28.91,WNW,292,0.0,0.0,93,0.00,CLR,,0.00,WeatherDisplay:10.37,2013-07-01 09:29:00,
2013-07-01 04:30:00,52.0,50.0,28.91,WNW,292,0.0,0.0,93,0.00,CLR,,0.00,WeatherDisplay:10.37,2013-07-01 09:30:00,
2013-07-01 04:31:00,52.0,50.0,28.91,WNW,292,0.0,0.0,93,0.00,CLR,,0.00,WeatherDisplay:10.37,2013-07-01 09:31:00,
2013-07-01 04:33:00,51.8,49.8,28.91,WNW,292,0.0,0.0,93,0.00,CLR,,0.00,WeatherDisplay:10.37,2013-07-01 09:33:00,
2013-07-01 04:34:00,51.8,49.8,28.91,WNW,292,0.0,0.0,93,0.00,CLR,,0.00,WeatherDisplay:10.37,2013-07-01 09:34:00,
2013-07-01 04:35:00,51.8,49.8,28.91,WNW,292,0.0,0.0,93,0.00,CLR,,0.00,WeatherDisplay:10.37,2013-07-01 09:35:00,
2013-07-01 04:36:00,51.8,49.8,28.91,WNW,292,0.0,0.0,93,0.00,CLR,,0.00,WeatherDisplay:10.37,2013-07-01 09:36:00,
2013-07-01 04:38:00,51.8,49.8,28.91,WNW,292,0.0,0.0,93,0.00,CLR,,0.00,WeatherDisplay:10.37,2013-07-01 09:38:00,
2013-07-01 04:39:00,51.8,49.8,28.91,WNW,292,0.0,0.0,93,0.00,CLR,,0.00,WeatherDisplay:10.37,2013-07-01 09:39:00,
2013-07-01 04:41:00,51.6,49.9,28.91,WNW,292,0.0,0.0,94,0.00,CLR,,0.00,WeatherDisplay:10.37,2013-07-01 09:41:00,
2013-07-01 04:44:00,51.6,49.9,28.91,WNW,292,0.0,0.0,94,0.00,CLR,,0.00,WeatherDisplay:10.37,2013-07-01 09:44:00,
2013-07-01 04:45:00,51.6,49.9,28.91,WNW,292,0.0,0.0,94,0.00,CLR,,0.00,WeatherDisplay:10.37,2013-07-01 09:45:00,
2013-07-01 04:46:00,51.6,49.9,28.91,WNW,292,0.0,0.0,94,0.00,CLR,,0.00,WeatherDisplay:10.37,2013-07-01 09:46:00,
2013-07-01 04:47:00,51.4,49.8,28.91,WNW,292,0.0,0.0,94,0.00,CLR,,0.00,WeatherDisplay:10.37,2013-07-01 09:47:00,
2013-07-01 04:49:00,51.4,49.8,28.91,WNW,292,0.0,0.0,94,0.00,CLR,,0.00,WeatherDisplay:10.37,2013-07-01 09:49:00,
2013-07-01 04:50:00,51.4,49.8,28.91,West,270,0.0,0.0,94,0.00,CLR,,0.00,WeatherDisplay:10.37,2013-07-01 09:50:00,
2013-07-01 04:51:00,51.6,49.7,28.91,West,270,0.9,1.2,93,0.00,CLR,,0.00,WeatherDisplay:10.37,2013-07-01 09:51:00,
2013-07-01 04:53:00,51.6,49.9,28.91,WSW,248,0.0,1.2,94,0.00,CLR,,0.00,WeatherDisplay:10.37,2013-07-01 09:53:00,
2013-07-01 04:54:00,51.6,49.7,28.91,WNW,292,0.0,0.0,93,0.00,CLR,,0.00,WeatherDisplay:10.37,2013-07-01 09:54:00,
2013-07-01 04:55:00,51.6,49.9,28.91,WNW,292,0.0,0.0,94,0.00,CLR,,0.00,WeatherDisplay:10.37,2013-07-01 09:55:00,
2013-07-01 04:56:00,51.6,49.9,28.91,WNW,292,0.0,0.0,94,0.00,CLR,,0.00,WeatherDisplay:10.37,2013-07-01 09:56:00,
2013-07-01 04:57:00,51.6,49.9,28.91,WNW,292,0.0,0.0,94,0.00,CLR,,0.00,WeatherDisplay:10.37,2013-07-01 09:57:00,
2013-07-01 04:59:00,51.6,49.9,28.91,WNW,292,0.0,0.0,94,0.00,CLR,,0.00,WeatherDisplay:10.37,2013-07-01 09:59:00,
2013-07-01 05:00:00,51.6,49.9,28.91,WNW,292,0.0,0.0,94,0.00,CLR,,0.00,WeatherDisplay:10.37,2013-07-01 10:00:00,
2013-07-01 05:01:00,51.6,49.9,28.91,WNW,292,0.0,0.0,94,0.00,CLR,,0.00,WeatherDisplay:10.37,2013-07-01 10:01:00,
2013-07-01 05:02:00,51.6,49.9,28.91,WNW,292,0.0,0.0,94,0.00,CLR,,0.00,WeatherDisplay:10.37,2013-07-01 10:02:00,
2013-07-01 05:03:00,51.6,49.9,28.91,WNW,292,0.0,2.0,94,0.00,CLR,,0.00,WeatherDisplay:10.37,2013-07-01 10:03:00,
2013-07-01 05:04:00,51.6,49.9,28.91,WNW,292,0.0,2.3,94,0.00,CLR,,0.00,WeatherDisplay:10.37,2013-07-01 10:04:00,
2013-07-01 05:05:00,51.6,49.9,28.91,WNW,292,0.0,0.0,94,0.00,CLR,,0.00,WeatherDisplay:10.37,2013-07-01 10:05:00,
2013-07-01 05:06:00,51.6,49.9,28.91,WNW,292,0.0,0.0,94,0.00,CLR,,0.00,WeatherDisplay:10.37,2013-07-01 10:06:00,
2013-07-01 05:07:00,51.6,49.9,28.91,WNW,292,0.0,0.0,94,0.00,CLR,,0.00,WeatherDisplay:10.37,2013-07-01 10:07:00,
2013-07-01 05:09:00,51.6,49.9,28.91,WNW,292,0.0,0.0,94,0.00,CLR,,0.00,WeatherDisplay:10.37,2013-07-01 10:09:00,
2013-07-01 05:10:00,51.6,49.9,28.91,WNW,292,0.0,0.0,94,0.00,CLR,,0.00,WeatherDisplay:10.37,2013-07-01 10:10:00,
2013-07-01 05:11:00,51.6,49.9,28.91,WNW,292,0.0,0.0,94,0.00,CLR,,0.00,WeatherDisplay:10.37,2013-07-01 10:11:00,
2013-07-01 05:13:00,51.6,49.9,28.91,WNW,292,0.0,0.0,94,0.00,CLR,,0.00,WeatherDisplay:10.37,2013-07-01 10:13:00,
2013-07-01 05:14:00,51.6,49.9,28.91,WNW,292,0.0,0.0,94,0.00,CLR,,0.00,WeatherDisplay:10.37,2013-07-01 10:14:00,
2013-07-01 05:15:00,51.6,49.9,28.91,WNW,292,0.0,0.0,94,0.00,CLR,,0.00,WeatherDisplay:10.37,2013-07-01 10:15:00,
2013-07-01 05:16:00,51.4,49.8,28.91,WNW,292,0.0,0.0,94,0.00,CLR,,0.00,WeatherDisplay:10.37,2013-07-01 10:16:00,
2013-07-01 05:19:00,51.4,49.8,28.91,NW,315,0.0,0.0,94,0.00,CLR,,0.00,WeatherDisplay:10.37,2013-07-01 10:19:00,
2013-07-01 05:20:00,51.4,49.8,28.91,NW,315,0.0,0.0,94,0.00,CLR,,0.00,WeatherDisplay:10.37,2013-07-01 10:20:00,
2013-07-01 05:21:00,51.4,49.8,28.91,NW,315,0.0,0.0,94,0.00,CLR,,0.00,WeatherDisplay:10.37,2013-07-01 10:21:00,
2013-07-01 05:22:00,51.4,49.8,28.91,NW,315,0.0,0.0,94,0.00,CLR,,0.00,WeatherDisplay:10.37,2013-07-01 10:22:00,
2013-07-01 05:24:00,51.4,49.8,28.91,NW,315,0.0,0.0,94,0.00,CLR,,0.00,WeatherDisplay:10.37,2013-07-01 10:24:00,
2013-07-01 05:25:00,51.4,49.8,28.91,NW,315,0.0,0.0,94,0.00,CLR,,0.00,WeatherDisplay:10.37,2013-07-01 10:25:00,
2013-07-01 05:26:00,51.4,49.8,28.91,WNW,292,0.0,0.0,94,0.00,CLR,,0.00,WeatherDisplay:10.37,2013-07-01 10:26:00,
2013-07-01 05:27:00,51.4,49.8,28.91,WNW,292,0.0,0.0,94,0.00,CLR,,0.00,WeatherDisplay:10.37,2013-07-01 10:27:00,
2013-07-01 05:29:00,51.4,49.8,28.91,WNW,292,0.0,0.0,94,0.00,CLR,,0.00,WeatherDisplay:10.37,2013-07-01 10:29:00,
2013-07-01 05:30:00,51.4,49.8,28.91,WNW,292,0.0,0.0,94,0.00,CLR,,0.00,WeatherDisplay:10.37,2013-07-01 10:30:00,
2013-07-01 05:32:00,51.4,49.8,28.91,NW,315,0.0,0.0,94,0.00,CLR,,0.00,WeatherDisplay:10.37,2013-07-01 10:32:00,
2013-07-01 05:33:00,51.4,49.8,28.91,NW,315,0.0,0.0,94,0.00,CLR,,0.00,WeatherDisplay:10.37,2013-07-01 10:33:00,
2013-07-01 05:34:00,51.4,49.8,28.91,WNW,292,0.0,0.0,94,0.00,CLR,,0.00,WeatherDisplay:10.37,2013-07-01 10:34:00,
2013-07-01 05:36:00,51.4,49.8,28.91,WNW,292,0.0,0.0,94,0.00,CLR,,0.00,WeatherDisplay:10.37,2013-07-01 10:36:00,
2013-07-01 05:37:00,51.6,49.9,28.91,WNW,292,0.0,0.0,94,0.00,CLR,,0.00,WeatherDisplay:10.37,2013-07-01 10:37:00,
2013-07-01 05:39:00,51.6,50.2,28.91,NNW,338,0.0,0.0,95,0.00,CLR,,0.00,WeatherDisplay:10.37,2013-07-01 10:39:00,
2013-07-01 05:40:00,51.6,50.2,28.88,NW,315,0.0,0.0,95,0.00,CLR,,0.00,WeatherDisplay:10.37,2013-07-01 10:40:00,
2013-07-01 05:41:00,51.6,50.2,28.88,NW,315,0.0,0.0,95,0.00,CLR,,0.00,WeatherDisplay:10.37,2013-07-01 10:41:00,
2013-07-01 05:42:00,51.6,50.2,28.88,WNW,292,0.0,0.0,95,0.00,CLR,,0.00,WeatherDisplay:10.37,2013-07-01 10:42:00,
2013-07-01 05:45:00,51.8,50.1,28.88,West,270,1.2,2.3,94,0.00,CLR,,0.00,WeatherDisplay:10.37,2013-07-01 10:45:00,
2013-07-01 05:46:00,51.8,50.1,28.88,West,270,1.2,1.2,94,0.00,CLR,,0.00,WeatherDisplay:10.37,2013-07-01 10:46:00,
2013-07-01 05:48:00,52.0,50.6,28.88,WNW,292,0.0,0.0,95,0.00,CLR,,0.00,WeatherDisplay:10.37,2013-07-01 10:48:00,
2013-07-01 05:50:00,52.0,50.6,28.88,WNW,292,0.0,0.0,95,0.00,CLR,,0.00,WeatherDisplay:10.37,2013-07-01 10:50:00,
2013-07-01 05:51:00,52.0,50.6,28.88,WNW,292,0.0,0.0,95,0.00,CLR,,0.00,WeatherDisplay:10.37,2013-07-01 10:51:00,
2013-07-01 05:53:00,52.3,51.0,28.88,NW,315,0.9,1.2,95,0.00,CLR,,0.00,WeatherDisplay:10.37,2013-07-01 10:53:00,
2013-07-01 05:55:00,52.9,51.5,28.91,West,270,0.0,0.0,95,0.00,CLR,,0.00,WeatherDisplay:10.37,2013-07-01 10:55:00,
2013-07-01 05:56:00,53.1,51.7,28.91,West,270,0.0,0.0,95,0.00,CLR,,0.00,WeatherDisplay:10.37,2013-07-01 10:56:00,
2013-07-01 05:57:00,53.1,51.7,28.91,West,270,0.0,0.0,95,0.00,CLR,,0.00,WeatherDisplay:10.37,2013-07-01 10:57:00,
2013-07-01 05:59:00,53.6,52.2,28.91,West,270,0.0,0.0,95,0.00,CLR,,0.00,WeatherDisplay:10.37,2013-07-01 10:59:00,
2013-07-01 06:00:00,53.8,52.7,28.91,WNW,292,0.0,0.0,96,0.00,CLR,,0.00,WeatherDisplay:10.37,2013-07-01 11:00:00,
2013-07-01 06:02:00,54.0,52.8,28.91,WNW,292,0.0,0.0,96,0.00,CLR,,0.00,WeatherDisplay:10.37,2013-07-01 11:02:00,
2013-07-01 06:03:00,54.1,53.0,28.91,WNW,292,0.0,0.0,96,0.00,CLR,,0.00,WeatherDisplay:10.37,2013-07-01 11:03:00,
2013-07-01 06:04:00,54.5,53.4,28.91,West,270,0.0,0.0,96,0.00,CLR,,0.00,WeatherDisplay:10.37,2013-07-01 11:04:00,
2013-07-01 06:06:00,54.9,53.7,28.91,West,270,0.0,0.0,96,0.00,CLR,,0.00,WeatherDisplay:10.37,2013-07-01 11:06:00,
2013-07-01 06:07:00,55.0,53.9,28.91,West,270,0.0,0.0,96,0.00,CLR,,0.00,WeatherDisplay:10.37,2013-07-01 11:07:00,
2013-07-01 06:08:00,55.0,53.9,28.91,West,270,0.0,0.0,96,0.00,CLR,,0.00,WeatherDisplay:10.37,2013-07-01 11:08:00,
2013-07-01 06:10:00,55.4,54.0,28.91,WNW,292,0.0,0.0,95,0.00,CLR,,0.00,WeatherDisplay:10.37,2013-07-01 11:10:00,
2013-07-01 06:11:00,55.6,54.2,28.91,WNW,292,0.0,0.0,95,0.00,CLR,,0.00,WeatherDisplay:10.37,2013-07-01 11:11:00,
2013-07-01 06:12:00,55.8,54.3,28.91,WNW,292,0.0,0.0,95,0.00,CLR,,0.00,WeatherDisplay:10.37,2013-07-01 11:12:00,
2013-07-01 06:13:00,55.9,54.5,28.91,WNW,292,0.0,0.0,95,0.00,CLR,,0.00,WeatherDisplay:10.37,2013-07-01 11:13:00,
2013-07-01 06:14:00,55.9,54.5,28.91,WNW,292,0.0,0.0,95,0.00,CLR,,0.00,WeatherDisplay:10.37,2013-07-01 11:14:00,
2013-07-01 06:15:00,56.1,54.7,28.91,West,270,0.0,0.0,95,0.00,CLR,,0.00,WeatherDisplay:10.37,2013-07-01 11:15:00,
2013-07-01 06:17:00,56.5,54.8,28.91,WNW,292,0.0,0.0,94,0.00,CLR,,0.00,WeatherDisplay:10.37,2013-07-01 11:17:00,
2013-07-01 06:18:00,56.5,54.8,28.91,WNW,292,0.0,0.0,94,0.00,CLR,,0.00,WeatherDisplay:10.37,2013-07-01 11:18:00,
2013-07-01 06:19:00,56.7,55.0,28.91,NW,315,0.0,0.0,94,0.00,CLR,,0.00,WeatherDisplay:10.37,2013-07-01 11:19:00,
2013-07-01 06:20:00,56.7,55.0,28.91,WNW,292,1.4,2.3,94,0.00,CLR,,0.00,WeatherDisplay:10.37,2013-07-01 11:20:00,
2013-07-01 06:22:00,57.0,55.3,28.91,West,270,0.0,0.0,94,0.00,CLR,,0.00,WeatherDisplay:10.37,2013-07-01 11:22:00,
2013-07-01 06:23:00,57.2,55.5,28.91,West,270,0.0,0.0,94,0.00,CLR,,0.00,WeatherDisplay:10.37,2013-07-01 11:23:00,
2013-07-01 06:24:00,57.2,55.5,28.91,West,270,0.0,0.0,94,0.00,CLR,,0.00,WeatherDisplay:10.37,2013-07-01 11:24:00,
2013-07-01 06:26:00,57.7,56.0,28.91,WSW,248,0.0,0.0,94,0.00,CLR,,0.00,WeatherDisplay:10.37,2013-07-01 11:26:00,
2013-07-01 06:28:00,57.9,56.2,28.91,NW,315,0.0,0.0,94,0.00,CLR,,0.00,WeatherDisplay:10.37,2013-07-01 11:28:00,
2013-07-01 06:29:00,58.3,56.6,28.91,WNW,292,0.0,0.0,94,0.00,CLR,,0.00,WeatherDisplay:10.37,2013-07-01 11:29:00,
2013-07-01 06:31:00,58.6,56.6,28.91,West,270,0.0,0.0,93,0.00,CLR,,0.00,WeatherDisplay:10.37,2013-07-01 11:31:00,
2013-07-01 06:32:00,59.0,57.0,28.91,WNW,292,0.0,0.0,93,0.00,CLR,,0.00,WeatherDisplay:10.37,2013-07-01 11:32:00,
2013-07-01 06:33:00,59.0,57.0,28.91,WNW,292,0.0,0.0,93,0.00,CLR,,0.00,WeatherDisplay:10.37,2013-07-01 11:33:00,
2013-07-01 06:34:00,59.2,57.2,28.91,WNW,292,0.0,0.0,93,0.00,CLR,,0.00,WeatherDisplay:10.37,2013-07-01 11:34:00,
2013-07-01 06:36:00,59.5,57.2,28.91,West,270,0.0,0.0,92,0.00,CLR,,0.00,WeatherDisplay:10.37,2013-07-01 11:36:00,
2013-07-01 06:37:00,59.9,57.6,28.91,West,270,0.0,0.0,92,0.00,CLR,,0.00,WeatherDisplay:10.37,2013-07-01 11:37:00,
2013-07-01 06:38:00,59.9,57.6,28.91,West,270,0.0,0.0,92,0.00,CLR,,0.00,WeatherDisplay:10.37,2013-07-01 11:38:00,
2013-07-01 06:39:00,60.1,57.7,28.91,West,270,0.0,0.0,92,0.00,CLR,,0.00,WeatherDisplay:10.37,2013-07-01 11:39:00,
2013-07-01 06:41:00,60.1,57.7,28.91,West,270,0.0,0.0,92,0.00,CLR,,0.00,WeatherDisplay:10.37,2013-07-01 11:41:00,
2013-07-01 06:42:00,61.0,58.3,28.91,WNW,292,0.0,0.0,91,0.00,CLR,,0.00,WeatherDisplay:10.37,2013-07-01 11:42:00,
2013-07-01 06:43:00,61.0,58.3,28.91,WNW,292,0.0,0.0,91,0.00,CLR,,0.00,WeatherDisplay:10.37,2013-07-01 11:43:00,
2013-07-01 06:44:00,61.0,58.3,28.91,WNW,292,0.0,0.0,91,0.00,CLR,,0.00,WeatherDisplay:10.37,2013-07-01 11:44:00,
2013-07-01 06:46:00,61.3,58.4,28.91,WNW,292,0.0,1.2,90,0.00,CLR,,0.00,WeatherDisplay:10.37,2013-07-01 11:46:00,
2013-07-01 06:47:00,61.5,58.6,28.91,WNW,292,0.0,0.0,90,0.00,CLR,,0.00,WeatherDisplay:10.37,2013-07-01 11:47:00,
2013-07-01 06:48:00,61.7,58.7,28.91,WNW,292,0.0,0.0,90,0.00,CLR,,0.00,WeatherDisplay:10.37,2013-07-01 11:48:00,
2013-07-01 06:49:00,61.9,58.6,28.91,WNW,292,0.0,0.0,89,0.00,CLR,,0.00,WeatherDisplay:10.37,2013-07-01 11:49:00,
2013-07-01 06:52:00,62.6,59.0,28.91,NW,315,0.0,0.0,88,0.00,CLR,,0.00,WeatherDisplay:10.37,2013-07-01 11:52:00,
2013-07-01 06:53:00,62.8,58.9,28.91,NW,315,0.0,0.0,87,0.00,CLR,,0.00,WeatherDisplay:10.37,2013-07-01 11:53:00,
2013-07-01 06:55:00,63.0,59.1,28.91,WNW,301,0.0,0.0,87,0.00,CLR,,0.00,WeatherDisplay:10.37,2013-07-01 11:55:00,
2013-07-01 06:58:00,63.7,59.1,28.91,NNW,338,0.0,0.0,85,0.00,CLR,,0.00,WeatherDisplay:10.37,2013-07-01 11:58:00,
2013-07-01 06:59:00,63.9,58.9,28.91,NW,315,0.0,0.0,84,0.00,CLR,,0.00,WeatherDisplay:10.37,2013-07-01 11:59:00,
2013-07-01 07:00:00,64.2,58.6,28.91,NNW,338,1.4,2.4,82,0.00,CLR,,0.00,WeatherDisplay:10.37,2013-07-01 12:00:00,
2013-07-01 07:03:00,64.2,57.6,28.91,NW,315,1.6,2.3,79,0.00,CLR,,0.00,WeatherDisplay:10.37,2013-07-01 12:03:00,
2013-07-01 07:04:00,64.4,57.7,28.91,North,0,0.9,1.6,79,0.00,CLR,,0.00,WeatherDisplay:10.37,2013-07-01 12:04:00,
2013-07-01 07:06:00,64.8,57.7,28.91,WNW,292,0.0,1.2,78,0.00,CLR,,0.00,WeatherDisplay:10.37,2013-07-01 12:06:00,
2013-07-01 07:08:00,65.1,57.7,28.91,NW,315,1.4,2.3,77,0.00,CLR,,0.00,WeatherDisplay:10.37,2013-07-01 12:08:00,
2013-07-01 07:09:00,65.3,57.9,28.91,WNW,292,1.4,2.3,77,0.00,CLR,,0.00,WeatherDisplay:10.37,2013-07-01 12:09:00,
2013-07-01 07:12:00,66.2,57.7,28.94,NW,315,0.9,2.4,74,0.00,CLR,,0.00,WeatherDisplay:10.37,2013-07-01 12:12:00,
2013-07-01 07:13:00,66.2,57.3,28.94,NW,315,2.0,2.4,73,0.00,CLR,,0.00,WeatherDisplay:10.37,2013-07-01 12:13:00,
2013-07-01 07:14:00,66.4,57.1,28.94,NW,315,0.9,2.3,72,0.00,CLR,,0.00,WeatherDisplay:10.37,2013-07-01 12:14:00,
2013-07-01 07:15:00,66.3,57.0,28.94,NNW,330,1.0,3.0,72,0.00,CLR,,0.00,WeatherDisplay:10.37,2013-07-01 12:15:00,
2013-07-01 07:17:00,66.9,57.2,28.94,WNW,292,2.2,3.5,71,0.00,CLR,,0.00,WeatherDisplay:10.37,2013-07-01 12:17:00,
2013-07-01 07:19:00,67.1,57.4,28.94,NW,315,2.0,3.5,71,0.00,CLR,,0.00,WeatherDisplay:10.37,2013-07-01 12:19:00,
2013-07-01 07:20:00,67.2,57.1,28.94,NNW,336,0.0,4.0,70,0.00,CLR,,0.00,WeatherDisplay:10.37,2013-07-01 12:20:00,
2013-07-01 07:22:00,67.6,57.5,28.94,North,0,0.9,2.4,70,0.00,CLR,,0.00,WeatherDisplay:10.37,2013-07-01 12:22:00,
2013-07-01 07:24:00,68.2,57.6,28.94,WNW,292,0.9,2.3,69,0.00,CLR,,0.00,WeatherDisplay:10.37,2013-07-01 12:24:00,
2013-07-01 07:25:00,68.4,57.4,28.94,North,0,0.0,0.0,68,0.00,CLR,,0.00,WeatherDisplay:10.37,2013-07-01 12:25:00,
2013-07-01 07:27:00,68.9,57.9,28.94,North,0,0.0,0.0,68,0.00,CLR,,0.00,WeatherDisplay:10.37,2013-07-01 12:27:00,
2013-07-01 07:28:00,69.3,58.2,28.94,NW,315,0.0,1.6,68,0.00,CLR,,0.00,WeatherDisplay:10.37,2013-07-01 12:28:00,
2013-07-01 07:29:00,69.4,57.6,28.94,West,270,0.0,1.2,66,0.00,CLR,,0.00,WeatherDisplay:10.37,2013-07-01 12:29:00,
2013-07-01 07:31:00,69.6,58.2,28.94,North,0,0.0,0.0,67,0.00,CLR,,0.00,WeatherDisplay:10.37,2013-07-01 12:31:00,
2013-07-01 07:32:00,70.0,57.7,28.94,West,270,0.9,2.3,65,0.00,CLR,,0.00,WeatherDisplay:10.37,2013-07-01 12:32:00,
2013-07-01 07:33:00,70.0,57.2,28.94,WNW,292,0.9,2.3,64,0.00,CLR,,0.00,WeatherDisplay:10.37,2013-07-01 12:33:00,
2013-07-01 07:34:00,70.3,57.1,28.94,NNW,338,0.0,2.3,63,0.00,CLR,,0.00,WeatherDisplay:10.37,2013-07-01 12:34:00,
2013-07-01 07:36:00,70.7,57.5,28.94,NNW,338,0.0,0.0,63,0.00,CLR,,0.00,WeatherDisplay:10.37,2013-07-01 12:36:00,
2013-07-01 07:37:00,70.9,57.7,28.94,NW,315,0.0,0.0,63,0.00,CLR,,0.00,WeatherDisplay:10.37,2013-07-01 12:37:00,
2013-07-01 07:38:00,71.1,58.3,28.94,NNW,338,0.0,0.0,64,0.00,CLR,,0.00,WeatherDisplay:10.37,2013-07-01 12:38:00,
2013-07-01 07:40:00,71.2,57.1,28.94,NNE,22,0.0,1.2,61,0.00,CLR,,0.00,WeatherDisplay:10.37,2013-07-01 12:40:00,
2013-07-01 07:41:00,71.6,57.4,28.94,NNW,338,0.0,0.0,61,0.00,CLR,,0.00,WeatherDisplay:10.37,2013-07-01 12:41:00,
2013-07-01 07:42:00,71.6,57.4,28.94,NNW,338,0.0,0.0,61,0.00,CLR,,0.00,WeatherDisplay:10.37,2013-07-01 12:42:00,
2013-07-01 07:43:00,72.0,57.3,28.94,NNW,338,0.0,0.0,60,0.00,CLR,,0.00,WeatherDisplay:10.37,2013-07-01 12:43:00,
2013-07-01 07:45:00,72.1,57.0,28.94,NNE,22,0.0,0.0,59,0.00,CLR,,0.00,WeatherDisplay:10.37,2013-07-01 12:45:00,
2013-07-01 07:46:00,72.3,57.2,28.94,NW,315,0.0,2.6,59,0.00,CLR,,0.00,WeatherDisplay:10.37,2013-07-01 12:46:00,
2013-07-01 07:48:00,72.0,55.4,28.94,NNW,338,2.0,2.3,56,0.00,CLR,,0.00,WeatherDisplay:10.37,2013-07-01 12:48:00,
2013-07-01 07:49:00,72.1,55.1,28.94,North,0,0.9,2.3,55,0.00,CLR,,0.00,WeatherDisplay:10.37,2013-07-01 12:49:00,
2013-07-01 07:51:00,72.7,55.6,28.94,North,0,0.0,0.0,55,0.00,CLR,,0.00,WeatherDisplay:10.37,2013-07-01 12:51:00,
2013-07-01 07:52:00,72.9,55.7,28.94,North,0,0.0,0.0,55,0.00,CLR,,0.00,WeatherDisplay:10.37,2013-07-01 12:52:00,
2013-07-01 07:53:00,72.9,55.7,28.94,North,0,0.0,0.0,55,0.00,CLR,,0.00,WeatherDisplay:10.37,2013-07-01 12:53:00,
2013-07-01 07:54:00,73.2,55.6,28.94,North,0,0.0,1.2,54,0.00,CLR,,0.00,WeatherDisplay:10.37,2013-07-01 12:54:00,
2013-07-01 07:57:00,73.6,54.9,28.94,North,0,0.0,1.2,52,0.00,CLR,,0.00,WeatherDisplay:10.37,2013-07-01 12:57:00,
2013-07-01 07:58:00,73.4,55.2,28.94,NNW,338,0.0,1.2,53,0.00,CLR,,0.00,WeatherDisplay:10.37,2013-07-01 12:58:00,
2013-07-01 08:00:00,73.4,53.7,28.94,North,360,1.0,3.0,50,0.00,CLR,,0.00,WeatherDisplay:10.37,2013-07-01 13:00:00,
2013-07-01 08:01:00,73.6,52.7,28.94,ENE,68,0.0,2.3,48,0.00,CLR,,0.00,WeatherDisplay:10.37,2013-07-01 13:01:00,
2013-07-01 08:02:00,73.6,52.7,28.94,NNE,22,0.0,1.2,48,0.00,CLR,,0.00,WeatherDisplay:10.37,2013-07-01 13:02:00,
2013-07-01 08:05:00,73.8,51.7,28.94,North,0,0.9,2.2,46,0.00,CLR,,0.00,WeatherDisplay:10.37,2013-07-01 13:05:00,
2013-07-01 08:06:00,73.9,53.0,28.94,North,0,0.0,2.3,48,0.00,CLR,,0.00,WeatherDisplay:10.37,2013-07-01 13:06:00,
2013-07-01 08:07:00,74.1,53.2,28.94,North,0,0.0,0.0,48,0.00,CLR,,0.00,WeatherDisplay:10.37,2013-07-01 13:07:00,
2013-07-01 08:08:00,74.1,53.2,28.94,NNW,338,0.0,0.0,48,0.00,CLR,,0.00,WeatherDisplay:10.37,2013-07-01 13:08:00,
2013-07-01 08:10:00,74.7,53.7,28.94,NW,315,0.0,2.3,48,0.00,CLR,,0.00,WeatherDisplay:10.37,2013-07-01 13:10:00,
2013-07-01 08:11:00,74.8,53.8,28.94,NNE,22,0.0,1.2,48,0.00,CLR,,0.00,WeatherDisplay:10.37,2013-07-01 13:11:00,
2013-07-01 08:12:00,75.0,54.0,28.94,ENE,68,0.9,2.3,48,0.00,CLR,,0.00,WeatherDisplay:10.37,2013-07-01 13:12:00,
2013-07-01 08:13:00,74.8,53.3,28.94,NE,45,0.0,2.3,47,0.00,CLR,,0.00,WeatherDisplay:10.37,2013-07-01 13:13:00,
2013-07-01 08:15:00,74.7,52.5,28.94,NNW,338,1.2,2.3,46,0.00,CLR,,0.00,WeatherDisplay:10.37,2013-07-01 13:15:00,
2013-07-01 08:16:00,74.7,52.5,28.94,North,0,1.6,2.3,46,0.00,CLR,,0.00,WeatherDisplay:10.37,2013-07-01 13:16:00,
2013-07-01 08:18:00,74.7,52.5,28.94,North,0,0.0,2.3,46,0.00,CLR,,0.00,WeatherDisplay:10.37,2013-07-01 13:18:00,
2013-07-01 08:20:00,74.8,52.1,28.94,NNE,22,1.4,2.3,45,0.00,CLR,,0.00,WeatherDisplay:10.37,2013-07-01 13:20:00,
2013-07-01 08:21:00,74.8,52.1,28.94,NNE,22,1.4,2.4,45,0.00,CLR,,0.00,WeatherDisplay:10.37,2013-07-01 13:21:00,
2013-07-01 08:22:00,74.8,52.7,28.94,NE,45,2.2,3.5,46,0.00,CLR,,0.00,WeatherDisplay:10.37,2013-07-01 13:22:00,
2013-07-01 08:23:00,74.7,51.9,28.94,SE,135,2.2,3.6,45,0.00,CLR,,0.00,WeatherDisplay:10.37,2013-07-01 13:23:00,
2013-07-01 08:24:00,74.7,51.9,28.94,NE,45,2.2,2.9,45,0.00,CLR,,0.00,WeatherDisplay:10.37,2013-07-01 13:24:00,
2013-07-01 08:25:00,74.7,51.9,28.97,ENE,68,2.4,3.5,45,0.00,CLR,,0.00,WeatherDisplay:10.37,2013-07-01 13:25:00,
2013-07-01 08:26:00,74.7,51.9,28.97,NNE,22,1.6,2.3,45,0.00,CLR,,0.00,WeatherDisplay:10.37,2013-07-01 13:26:00,
2013-07-01 08:27:00,74.7,51.3,28.97,NE,45,1.6,4.3,44,0.00,CLR,,0.00,WeatherDisplay:10.37,2013-07-01 13:27:00,
2013-07-01 08:28:00,74.8,52.1,28.97,NE,45,2.6,4.6,45,0.00,CLR,,0.00,WeatherDisplay:10.37,2013-07-01 13:28:00,
2013-07-01 08:29:00,74.8,52.1,28.97,NE,45,1.2,2.9,45,0.00,CLR,,0.00,WeatherDisplay:10.37,2013-07-01 13:29:00,
2013-07-01 08:31:00,74.5,49.2,28.97,ENE,68,2.6,5.4,41,0.00,CLR,,0.00,WeatherDisplay:10.37,2013-07-01 13:31:00,
2013-07-01 08:33:00,74.7,50.7,28.97,NE,45,1.6,4.6,43,0.00,CLR,,0.00,WeatherDisplay:10.37,2013-07-01 13:33:00,
2013-07-01 08:34:00,75.2,51.8,28.97,NNE,22,1.4,3.8,44,0.00,CLR,,0.00,WeatherDisplay:10.37,2013-07-01 13:34:00,
2013-07-01 08:36:00,75.2,50.5,28.97,NE,45,3.1,5.8,42,0.00,CLR,,0.00,WeatherDisplay:10.37,2013-07-01 13:36:00,
2013-07-01 08:37:00,75.2,50.5,28.97,East,90,3.1,5.8,42,0.00,CLR,,0.00,WeatherDisplay:10.37,2013-07-01 13:37:00,
2013-07-01 08:38:00,74.8,49.6,28.97,East,90,3.1,5.8,41,0.00,CLR,,0.00,WeatherDisplay:10.37,2013-07-01 13:38:00,
2013-07-01 08:40:00,74.7,50.1,28.97,ENE,60,3.0,6.0,42,0.00,CLR,,0.00,WeatherDisplay:10.37,2013-07-01 13:40:00,
2013-07-01 08:41:00,74.7,49.4,28.97,ESE,112,2.4,2.9,41,0.00,CLR,,0.00,WeatherDisplay:10.37,2013-07-01 13:41:00,
2013-07-01 08:42:00,75.0,50.4,28.97,ENE,68,2.2,2.3,42,0.00,CLR,,0.00,WeatherDisplay:10.37,2013-07-01 13:42:00,
2013-07-01 08:43:00,75.0,50.4,28.97,ENE,68,0.0,1.2,42,0.00,CLR,,0.00,WeatherDisplay:10.37,2013-07-01 13:43:00,
2013-07-01 08:45:00,75.6,50.2,28.97,ENE,68,2.9,3.5,41,0.00,CLR,,0.00,WeatherDisplay:10.37,2013-07-01 13:45:00,
2013-07-01 08:46:00,75.2,49.2,28.97,East,90,2.9,3.5,40,0.00,CLR,,0.00,WeatherDisplay:10.37,2013-07-01 13:46:00,
2013-07-01 08:47:00,75.0,49.7,28.97,NE,45,2.6,4.0,41,0.00,CLR,,0.00,WeatherDisplay:10.37,2013-07-01 13:47:00,
2013-07-01 08:49:00,75.2,49.2,28.97,North,0,2.6,4.6,40,0.00,CLR,,0.00,WeatherDisplay:10.37,2013-07-01 13:49:00,
2013-07-01 08:51:00,75.7,50.4,28.97,ENE,68,1.6,3.5,41,0.00,CLR,,0.00,WeatherDisplay:10.37,2013-07-01 13:51:00,
2013-07-01 08:53:00,76.5,51.0,28.97,NNE,22,1.4,3.5,41,0.00,CLR,,0.00,WeatherDisplay:10.37,2013-07-01 13:53:00,
2013-07-01 08:54:00,76.6,50.5,28.97,East,90,1.6,2.6,40,0.00,CLR,,0.00,WeatherDisplay:10.37,2013-07-01 13:54:00,
2013-07-01 08:56:00,75.9,49.9,28.97,East,90,3.1,3.5,40,0.00,CLR,,0.00,WeatherDisplay:10.37,2013-07-01 13:56:00,
2013-07-01 08:57:00,76.1,50.0,28.97,North,0,3.6,3.6,40,0.00,CLR,,0.00,WeatherDisplay:10.37,2013-07-01 13:57:00,
2013-07-01 08:58:00,76.5,50.3,28.97,ENE,68,0.9,3.5,40,0.00,CLR,,0.00,WeatherDisplay:10.37,2013-07-01 13:58:00,
2013-07-01 09:00:00,76.5,50.3,28.97,ENE,59,1.0,4.0,40,0.00,CLR,,0.00,WeatherDisplay:10.37,2013-07-01 14:00:00,
2013-07-01 09:01:00,77.0,50.8,28.97,NNE,22,1.6,2.3,40,0.00,CLR,,0.00,WeatherDisplay:10.37,2013-07-01 14:01:00,
2013-07-01 09:02:00,77.4,51.8,28.97,East,90,1.4,4.3,41,0.00,CLR,,0.00,WeatherDisplay:10.37,2013-07-01 14:02:00,
2013-07-01 09:03:00,76.6,46.9,28.97,East,90,4.3,4.9,35,0.00,CLR,,0.00,WeatherDisplay:10.37,2013-07-01 14:03:00,
2013-07-01 09:04:00,76.6,46.9,28.97,East,90,4.3,4.9,35,0.00,CLR,,0.00,WeatherDisplay:10.37,2013-07-01 14:04:00,
2013-07-01 09:05:00,76.5,47.5,28.97,ESE,112,3.1,4.6,36,0.00,CLR,,0.00,WeatherDisplay:10.37,2013-07-01 14:05:00,
2013-07-01 09:07:00,76.3,46.6,28.97,NNE,22,4.3,4.9,35,0.00,CLR,,0.00,WeatherDisplay:10.37,2013-07-01 14:07:00,
2013-07-01 09:09:00,76.1,46.5,28.97,NE,45,4.9,5.8,35,0.00,CLR,,0.00,WeatherDisplay:10.37,2013-07-01 14:09:00,
2013-07-01 09:10:00,76.1,46.5,28.97,NE,45,4.3,5.8,35,0.00,CLR,,0.00,WeatherDisplay:10.37,2013-07-01 14:10:00,
2013-07-01 09:12:00,76.1,46.5,28.97,NNE,22,3.8,4.6,35,0.00,CLR,,0.00,WeatherDisplay:10.37,2013-07-01 14:12:00,
2013-07-01 09:13:00,76.1,46.5,28.97,NNE,22,1.6,4.6,35,0.00,CLR,,0.00,WeatherDisplay:10.37,2013-07-01 14:13:00,
2013-07-01 09:14:00,76.5,46.8,28.97,East,90,1.6,3.5,35,0.00,CLR,,0.00,WeatherDisplay:10.37,2013-07-01 14:14:00,
2013-07-01 09:15:00,77.2,48.9,28.97,North,0,0.0,2.3,37,0.00,CLR,,0.00,WeatherDisplay:10.37,2013-07-01 14:15:00,
2013-07-01 09:18:00,78.1,48.9,28.97,NNE,22,3.1,3.5,36,0.00,CLR,,0.00,WeatherDisplay:10.37,2013-07-01 14:18:00,
2013-07-01 09:19:00,78.4,50.0,28.97,East,90,1.4,3.5,37,0.00,CLR,,0.00,WeatherDisplay:10.37,2013-07-01 14:19:00,
2013-07-01 09:20:00,78.4,50.0,28.97,NE,45,2.4,3.5,37,0.00,CLR,,0.00,WeatherDisplay:10.37,2013-07-01 14:20:00,
2013-07-01 09:21:00,78.6,49.4,28.97,NE,45,2.4,3.5,36,0.00,CLR,,0.00,WeatherDisplay:10.37,2013-07-01 14:21:00,
2013-07-01 09:23:00,79.0,48.2,28.97,NNE,22,2.4,3.5,34,0.00,CLR,,0.00,WeatherDisplay:10.37,2013-07-01 14:23:00,
2013-07-01 09:25:00,79.3,49.3,28.97,NE,39,1.0,3.0,35,0.00,CLR,,0.00,WeatherDisplay:10.37,2013-07-01 14:25:00,
2013-07-01 09:26:00,79.0,48.2,28.97,NE,45,2.4,2.4,34,0.00,CLR,,0.00,WeatherDisplay:10.37,2013-07-01 14:26:00,
2013-07-01 09:28:00,79.3,48.5,28.97,NE,45,2.9,4.6,34,0.00,CLR,,0.00,WeatherDisplay:10.37,2013-07-01 14:28:00,
2013-07-01 09:29:00,79.3,48.5,28.97,NE,45,3.6,4.6,34,0.00,CLR,,0.00,WeatherDisplay:10.37,2013-07-01 14:29:00,
2013-07-01 09:30:00,79.2,47.6,28.97,NE,52,3.0,6.0,33,0.00,CLR,,0.00,WeatherDisplay:10.37,2013-07-01 14:30:00,
2013-07-01 09:32:00,78.8,47.3,28.97,ENE,68,3.1,5.8,33,0.00,CLR,,0.00,WeatherDisplay:10.37,2013-07-01 14:32:00,
2013-07-01 09:34:00,78.4,46.1,28.97,ENE,68,3.8,4.6,32,0.00,CLR,,0.00,WeatherDisplay:10.37,2013-07-01 14:34:00,
2013-07-01 09:35:00,78.6,46.3,28.97,ENE,68,4.3,4.6,32,0.00,CLR,,0.00,WeatherDisplay:10.37,2013-07-01 14:35:00,
2013-07-01 09:37:00,79.2,47.6,28.97,North,0,1.6,2.3,33,0.00,CLR,,0.00,WeatherDisplay:10.37,2013-07-01 14:37:00,
2013-07-01 09:39:00,79.5,47.9,28.97,NE,45,1.2,3.3,33,0.00,CLR,,0.00,WeatherDisplay:10.37,2013-07-01 14:39:00,
2013-07-01 09:41:00,79.2,45.9,28.94,NE,45,4.0,5.8,31,0.00,CLR,,0.00,WeatherDisplay:10.37,2013-07-01 14:41:00,
2013-07-01 09:42:00,79.2,45.9,28.94,NE,45,2.0,3.5,31,0.00,CLR,,0.00,WeatherDisplay:10.37,2013-07-01 14:42:00,
2013-07-01 09:44:00,80.1,48.4,28.94,East,90,0.0,2.4,33,0.00,CLR,,0.00,WeatherDisplay:10.37,2013-07-01 14:44:00,
2013-07-01 09:46:00,79.9,47.4,28.94,NE,45,3.1,3.5,32,0.00,CLR,,0.00,WeatherDisplay:10.37,2013-07-01 14:46:00,
2013-07-01 09:47:00,80.4,48.7,28.94,NNW,338,2.9,4.6,33,0.00,CLR,,0.00,WeatherDisplay:10.37,2013-07-01 14:47:00,
2013-07-01 09:49:00,80.8,49.0,28.94,NNW,338,1.6,2.3,33,0.00,CLR,,0.00,WeatherDisplay:10.37,2013-07-01 14:49:00,
2013-07-01 09:51:00,81.7,49.8,28.94,East,90,1.2,2.3,33,0.00,CLR,,0.00,WeatherDisplay:10.37,2013-07-01 14:51:00,
2013-07-01 09:52:00,81.9,49.1,28.94,NE,45,2.9,5.4,32,0.00,CLR,,0.00,WeatherDisplay:10.37,2013-07-01 14:52:00,
2013-07-01 09:54:00,81.1,48.5,28.94,NE,45,2.9,4.9,32,0.00,CLR,,0.00,WeatherDisplay:10.37,2013-07-01 14:54:00,
2013-07-01 09:55:00,80.8,47.3,28.97,NE,45,4.0,5.8,31,0.00,CLR,,0.00,WeatherDisplay:10.37,2013-07-01 14:55:00,
2013-07-01 09:56:00,81.0,47.5,28.97,ENE,68,3.3,5.8,31,0.00,CLR,,0.00,WeatherDisplay:10.37,2013-07-01 14:56:00,
2013-07-01 09:58:00,80.8,47.3,28.97,NNE,22,3.1,3.5,31,0.00,CLR,,0.00,WeatherDisplay:10.37,2013-07-01 14:58:00,
2013-07-01 10:00:00,80.8,47.3,28.97,NE,56,3.0,6.0,31,0.00,CLR,,0.00,WeatherDisplay:10.37,2013-07-01 15:00:00,
2013-07-01 10:01:00,80.8,47.3,28.97,NNE,22,2.2,3.5,31,0.00,CLR,,0.00,WeatherDisplay:10.37,2013-07-01 15:01:00,
2013-07-01 10:02:00,81.1,48.5,28.97,NE,45,1.2,4.9,32,0.00,CLR,,0.00,WeatherDisplay:10.37,2013-07-01 15:02:00,
2013-07-01 10:03:00,81.0,47.5,28.97,NNE,22,4.0,5.8,31,0.00,CLR,,0.00,WeatherDisplay:10.37,2013-07-01 15:03:00,
2013-07-01 10:05:00,81.1,47.6,28.97,NE,49,2.0,6.0,31,0.00,CLR,,0.00,WeatherDisplay:10.37,2013-07-01 15:05:00,
2013-07-01 10:06:00,81.5,47.9,28.97,NE,45,3.1,3.5,31,0.00,CLR,,0.00,WeatherDisplay:10.37,2013-07-01 15:06:00,
2013-07-01 10:07:00,81.1,47.6,28.97,North,0,3.1,3.8,31,0.00,CLR,,0.00,WeatherDisplay:10.37,2013-07-01 15:07:00,
2013-07-01 10:09:00,81.5,47.9,28.97,ENE,68,2.6,3.5,31,0.00,CLR,,0.00,WeatherDisplay:10.37,2013-07-01 15:09:00,
2013-07-01 10:10:00,81.3,47.8,28.97,NE,45,4.3,5.8,31,0.00,CLR,,0.00,WeatherDisplay:10.37,2013-07-01 15:10:00,
2013-07-01 10:11:00,81.0,47.5,28.97,ENE,68,3.6,5.4,31,0.00,CLR,,0.00,WeatherDisplay:10.37,2013-07-01 15:11:00,
2013-07-01 10:12:00,80.8,47.3,28.97,NE,45,3.1,5.8,31,0.00,CLR,,0.00,WeatherDisplay:10.37,2013-07-01 15:12:00,
2013-07-01 10:13:00,81.1,47.6,28.97,NE,45,2.4,5.8,31,0.00,CLR,,0.00,WeatherDisplay:10.37,2013-07-01 15:13:00,
2013-07-01 10:14:00,80.6,46.3,28.97,NE,45,3.8,5.8,30,0.00,CLR,,0.00,WeatherDisplay:10.37,2013-07-01 15:14:00,
2013-07-01 10:16:00,80.8,47.3,28.97,NE,45,2.2,6.2,31,0.00,CLR,,0.00,WeatherDisplay:10.37,2013-07-01 15:16:00,
2013-07-01 10:17:00,80.8,46.4,28.97,ENE,68,3.1,5.8,30,0.00,CLR,,0.00,WeatherDisplay:10.37,2013-07-01 15:17:00,
2013-07-01 10:18:00,80.6,46.3,28.97,NE,45,2.9,4.0,30,0.00,CLR,,0.00,WeatherDisplay:10.37,2013-07-01 15:18:00,
2013-07-01 10:19:00,80.8,47.3,28.97,NE,45,3.8,4.6,31,0.00,CLR,,0.00,WeatherDisplay:10.37,2013-07-01 15:19:00,
2013-07-01 10:21:00,81.3,47.8,28.97,ESE,112,1.2,3.5,31,0.00,CLR,,0.00,WeatherDisplay:10.37,2013-07-01 15:21:00,
2013-07-01 10:22:00,80.6,46.3,28.97,ENE,68,5.4,6.9,30,0.00,CLR,,0.00,WeatherDisplay:10.37,2013-07-01 15:22:00,
2013-07-01 10:24:00,80.6,46.3,28.97,North,0,3.6,6.9,30,0.00,CLR,,0.00,WeatherDisplay:10.37,2013-07-01 15:24:00,
2013-07-01 10:25:00,80.1,45.8,28.97,East,90,3.1,4.6,30,0.00,CLR,,0.00,WeatherDisplay:10.37,2013-07-01 15:25:00,
2013-07-01 10:26:00,80.6,46.3,28.97,North,0,3.6,5.8,30,0.00,CLR,,0.00,WeatherDisplay:10.37,2013-07-01 15:26:00,
2013-07-01 10:28:00,81.0,47.5,28.97,North,0,2.2,3.5,31,0.00,CLR,,0.00,WeatherDisplay:10.37,2013-07-01 15:28:00,
2013-07-01 10:30:00,81.5,47.9,28.97,NE,40,3.0,6.0,31,0.00,CLR,,0.00,WeatherDisplay:10.37,2013-07-01 15:30:00,
2013-07-01 10:31:00,81.1,46.8,28.97,NE,45,3.3,4.6,30,0.00,CLR,,0.00,WeatherDisplay:10.37,2013-07-01 15:31:00,
2013-07-01 10:32:00,81.9,47.4,28.97,NE,45,3.1,6.0,30,0.00,CLR,,0.00,WeatherDisplay:10.37,2013-07-01 15:32:00,
2013-07-01 10:33:00,81.3,46.9,28.97,NE,45,3.1,5.8,30,0.00,CLR,,0.00,WeatherDisplay:10.37,2013-07-01 15:33:00,
2013-07-01 10:35:00,81.7,48.1,28.97,North,0,1.2,3.5,31,0.00,CLR,,0.00,WeatherDisplay:10.37,2013-07-01 15:35:00,
2013-07-01 10:36:00,81.9,48.3,28.97,ENE,68,2.4,4.6,31,0.00,CLR,,0.00,WeatherDisplay:10.37,2013-07-01 15:36:00,
2013-07-01 10:38:00,82.4,47.8,28.97,North,0,2.4,2.4,30,0.00,CLR,,0.00,WeatherDisplay:10.37,2013-07-01 15:38:00,
2013-07-01 10:40:00,82.0,47.5,28.94,ENE,68,4.0,6.2,30,0.00,CLR,,0.00,WeatherDisplay:10.37,2013-07-01 15:40:00,
2013-07-01 10:41:00,82.0,47.5,28.94,NE,45,4.0,4.6,30,0.00,CLR,,0.00,WeatherDisplay:10.37,2013-07-01 15:41:00,
2013-07-01 10:43:00,82.2,47.7,28.94,NNE,22,3.8,3.8,30,0.00,CLR,,0.00,WeatherDisplay:10.37,2013-07-01 15:43:00,
2013-07-01 10:46:00,81.3,46.9,28.94,NNW,338,4.3,8.1,30,0.00,CLR,,0.00,WeatherDisplay:10.37,2013-07-01 15:46:00,
2013-07-01 10:47:00,81.5,47.1,28.94,ENE,68,4.3,4.6,30,0.00,CLR,,0.00,WeatherDisplay:10.37,2013-07-01 15:47:00,
2013-07-01 10:48:00,81.7,47.2,28.94,North,0,2.9,3.5,30,0.00,CLR,,0.00,WeatherDisplay:10.37,2013-07-01 15:48:00,
2013-07-01 10:49:00,81.9,47.4,28.94,North,0,2.9,4.6,30,0.00,CLR,,0.00,WeatherDisplay:10.37,2013-07-01 15:49:00,
2013-07-01 10:51:00,81.9,47.4,28.94,NE,45,3.3,6.9,30,0.00,CLR,,0.00,WeatherDisplay:10.37,2013-07-01 15:51:00,
2013-07-01 10:52:00,81.7,47.2,28.94,NE,45,3.3,5.8,30,0.00,CLR,,0.00,WeatherDisplay:10.37,2013-07-01 15:52:00,
2013-07-01 10:53:00,81.7,47.2,28.94,North,0,4.0,6.9,30,0.00,CLR,,0.00,WeatherDisplay:10.37,2013-07-01 15:53:00,
2013-07-01 10:54:00,81.7,47.2,28.94,North,0,2.6,6.9,30,0.00,CLR,,0.00,WeatherDisplay:10.37,2013-07-01 15:54:00,
2013-07-01 10:56:00,82.6,47.1,28.97,ENE,68,2.6,3.5,29,0.00,CLR,,0.00,WeatherDisplay:10.37,2013-07-01 15:56:00,
2013-07-01 10:57:00,82.6,47.1,28.97,NNE,22,2.9,4.3,29,0.00,CLR,,0.00,WeatherDisplay:10.37,2013-07-01 15:57:00,
2013-07-01 10:58:00,82.0,46.6,28.97,East,90,4.0,6.0,29,0.00,CLR,,0.00,WeatherDisplay:10.37,2013-07-01 15:58:00,
2013-07-01 10:59:00,82.0,46.6,28.97,NE,45,4.0,5.8,29,0.00,CLR,,0.00,WeatherDisplay:10.37,2013-07-01 15:59:00,
2013-07-01 11:00:00,82.0,47.5,28.97,North,0,3.8,5.8,30,0.00,CLR,,0.00,WeatherDisplay:10.37,2013-07-01 16:00:00,
2013-07-01 11:02:00,82.2,47.7,28.97,NNE,22,3.8,5.8,30,0.00,CLR,,0.00,WeatherDisplay:10.37,2013-07-01 16:02:00,
2013-07-01 11:05:00,82.6,48.0,28.97,East,90,3.1,5.8,30,0.00,CLR,,0.00,WeatherDisplay:10.37,2013-07-01 16:05:00,
2013-07-01 11:06:00,81.7,45.4,28.97,ENE,68,6.2,10.4,28,0.00,CLR,,0.00,WeatherDisplay:10.37,2013-07-01 16:06:00,
2013-07-01 11:07:00,81.3,46.0,28.97,North,0,4.9,10.4,29,0.00,CLR,,0.00,WeatherDisplay:10.37,2013-07-01 16:07:00,
2013-07-01 11:08:00,81.3,46.0,28.97,North,0,4.9,6.9,29,0.00,CLR,,0.00,WeatherDisplay:10.37,2013-07-01 16:08:00,
2013-07-01 11:10:00,81.9,46.5,28.97,NE,45,2.2,3.5,29,0.00,CLR,,0.00,WeatherDisplay:10.37,2013-07-01 16:10:00,
2013-07-01 11:12:00,81.1,45.9,28.97,ENE,68,5.4,9.2,29,0.00,CLR,,0.00,WeatherDisplay:10.37,2013-07-01 16:12:00,
2013-07-01 11:13:00,80.8,44.6,28.97,North,0,5.4,8.1,28,0.00,CLR,,0.00,WeatherDisplay:10.37,2013-07-01 16:13:00,
2013-07-01 11:16:00,80.8,45.6,28.97,East,90,3.3,6.2,29,0.00,CLR,,0.00,WeatherDisplay:10.37,2013-07-01 16:16:00,
2013-07-01 11:17:00,80.2,46.0,28.97,North,0,6.2,10.4,30,0.00,CLR,,0.00,WeatherDisplay:10.37,2013-07-01 16:17:00,
2013-07-01 11:18:00,81.3,46.0,28.97,North,0,2.9,4.0,29,0.00,CLR,,0.00,WeatherDisplay:10.37,2013-07-01 16:18:00,
2013-07-01 11:19:00,81.3,46.0,28.97,North,0,2.9,5.8,29,0.00,CLR,,0.00,WeatherDisplay:10.37,2013-07-01 16:19:00,
2013-07-01 11:21:00,81.7,47.2,28.97,North,0,3.3,5.8,30,0.00,CLR,,0.00,WeatherDisplay:10.37,2013-07-01 16:21:00,
2013-07-01 11:22:00,82.0,46.6,28.97,East,90,2.6,6.0,29,0.00,CLR,,0.00,WeatherDisplay:10.37,2013-07-01 16:22:00,
2013-07-01 11:24:00,81.9,46.5,28.97,North,0,3.6,3.6,29,0.00,CLR,,0.00,WeatherDisplay:10.37,2013-07-01 16:24:00,
2013-07-01 11:26:00,83.1,47.6,28.97,NW,315,1.6,2.3,29,0.00,CLR,,0.00,WeatherDisplay:10.37,2013-07-01 16:26:00,
2013-07-01 11:27:00,83.5,47.9,28.97,NE,45,2.9,3.5,29,0.00,CLR,,0.00,WeatherDisplay:10.37,2013-07-01 16:27:00,
2013-07-01 11:28:00,83.3,47.7,28.97,NE,45,3.1,4.0,29,0.00,CLR,,0.00,WeatherDisplay:10.37,2013-07-01 16:28:00,
2013-07-01 11:29:00,82.2,44.9,28.97,ENE,68,5.4,7.6,27,0.00,CLR,,0.00,WeatherDisplay:10.37,2013-07-01 16:29:00,
2013-07-01 11:31:00,81.5,46.2,28.97,ENE,68,4.5,9.2,29,0.00,CLR,,0.00,WeatherDisplay:10.37,2013-07-01 16:31:00,
2013-07-01 11:32:00,81.7,46.3,28.97,NE,45,4.3,6.9,29,0.00,CLR,,0.00,WeatherDisplay:10.37,2013-07-01 16:32:00,
2013-07-01 11:33:00,81.9,45.6,28.97,ENE,68,4.3,7.1,28,0.00,CLR,,0.00,WeatherDisplay:10.37,2013-07-01 16:33:00,
2013-07-01 11:35:00,81.7,45.4,28.97,NE,43,5.0,10.0,28,0.00,CLR,,0.00,WeatherDisplay:10.37,2013-07-01 16:35:00,
2013-07-01 11:36:00,81.0,44.8,28.97,NE,45,6.9,9.2,28,0.00,CLR,,0.00,WeatherDisplay:10.37,2013-07-01 16:36:00,
2013-07-01 11:37:00,81.0,45.7,28.97,NE,45,4.7,5.8,29,0.00,CLR,,0.00,WeatherDisplay:10.37,2013-07-01 16:37:00,
2013-07-01 11:38:00,81.0,45.7,28.97,ENE,68,4.7,8.1,29,0.00,CLR,,0.00,WeatherDisplay:10.37,2013-07-01 16:38:00,
2013-07-01 11:39:00,80.8,43.7,28.97,ENE,68,4.0,7.4,27,0.00,CLR,,0.00,WeatherDisplay:10.37,2013-07-01 16:39:00,
2013-07-01 11:40:00,80.6,43.5,28.97,NE,45,4.0,5.8,27,0.00,CLR,,0.00,WeatherDisplay:10.37,2013-07-01 16:40:00,
2013-07-01 11:41:00,80.4,45.2,28.97,ENE,68,6.4,9.2,29,0.00,CLR,,0.00,WeatherDisplay:10.37,2013-07-01 16:41:00,
2013-07-01 11:43:00,80.8,44.6,28.97,East,90,4.9,5.8,28,0.00,CLR,,0.00,WeatherDisplay:10.37,2013-07-01 16:43:00,
2013-07-01 11:45:00,81.1,45.8,28.97,NE,47,6.0,9.0,29,0.00,CLR,,0.00,WeatherDisplay:10.37,2013-07-01 16:45:00,
2013-07-01 11:47:00,81.5,44.3,28.97,NNE,22,4.9,6.9,27,0.00,CLR,,0.00,WeatherDisplay:10.37,2013-07-01 16:47:00,
2013-07-01 11:48:00,81.7,45.4,28.97,NNW,338,4.0,5.8,28,0.00,CLR,,0.00,WeatherDisplay:10.37,2013-07-01 16:48:00,
2013-07-01 11:50:00,82.0,46.6,28.97,ENE,68,3.8,5.8,29,0.00,CLR,,0.00,WeatherDisplay:10.37,2013-07-01 16:50:00,
2013-07-01 11:52:00,82.6,47.1,28.97,North,0,2.4,3.5,29,0.00,CLR,,0.00,WeatherDisplay:10.37,2013-07-01 16:52:00,
2013-07-01 11:53:00,82.8,46.3,28.97,ENE,68,2.4,5.9,28,0.00,CLR,,0.00,WeatherDisplay:10.37,2013-07-01 16:53:00,
2013-07-01 11:54:00,82.6,45.2,28.97,NE,45,5.4,9.7,27,0.00,CLR,,0.00,WeatherDisplay:10.37,2013-07-01 16:54:00,
2013-07-01 11:55:00,82.0,43.8,28.94,NE,45,7.4,9.2,26,0.00,CLR,,0.00,WeatherDisplay:10.37,2013-07-01 16:55:00,
2013-07-01 11:58:00,82.2,46.8,28.94,NNE,22,2.2,3.5,29,0.00,CLR,,0.00,WeatherDisplay:10.37,2013-07-01 16:58:00,
2013-07-01 12:00:00,82.4,46.9,28.94,ENE,68,3.6,6.0,29,0.00,CLR,,0.00,WeatherDisplay:10.37,2013-07-01 17:00:00,
2013-07-01 12:01:00,82.4,46.9,28.94,ESE,112,3.1,5.8,29,0.00,CLR,,0.00,WeatherDisplay:10.37,2013-07-01 17:01:00,
2013-07-01 12:02:00,82.4,46.9,28.94,East,90,3.1,8.1,29,0.00,CLR,,0.00,WeatherDisplay:10.37,2013-07-01 17:02:00,
2013-07-01 12:03:00,82.8,47.3,28.94,ENE,68,2.4,3.5,29,0.00,CLR,,0.00,WeatherDisplay:10.37,2013-07-01 17:03:00,
2013-07-01 12:05:00,82.8,47.3,28.94,ENE,61,3.0,8.0,29,0.00,CLR,,0.00,WeatherDisplay:10.37,2013-07-01 17:05:00,
2013-07-01 12:07:00,82.9,47.4,28.94,East,90,3.8,5.8,29,0.00,CLR,,0.00,WeatherDisplay:10.37,2013-07-01 17:07:00,
2013-07-01 12:08:00,82.6,47.1,28.94,ENE,68,5.4,5.8,29,0.00,CLR,,0.00,WeatherDisplay:10.37,2013-07-01 17:08:00,
2013-07-01 12:10:00,82.2,46.8,28.94,NNE,22,4.3,6.9,29,0.00,CLR,,0.00,WeatherDisplay:10.37,2013-07-01 17:10:00,
2013-07-01 12:12:00,81.9,44.6,28.94,East,90,4.9,5.8,27,0.00,CLR,,0.00,WeatherDisplay:10.37,2013-07-01 17:12:00,
2013-07-01 12:14:00,82.2,46.8,28.94,ENE,68,3.3,8.1,29,0.00,CLR,,0.00,WeatherDisplay:10.37,2013-07-01 17:14:00,
2013-07-01 12:15:00,81.5,44.3,28.94,North,0,4.0,8.1,27,0.00,CLR,,0.00,WeatherDisplay:10.37,2013-07-01 17:15:00,
2013-07-01 12:17:00,82.4,46.0,28.94,ENE,68,2.9,3.5,28,0.00,CLR,,0.00,WeatherDisplay:10.37,2013-07-01 17:17:00,
2013-07-01 12:19:00,83.3,47.7,28.94,ENE,68,2.9,3.8,29,0.00,CLR,,0.00,WeatherDisplay:10.37,2013-07-01 17:19:00,
2013-07-01 12:20:00,83.8,48.2,28.94,NNE,22,3.1,4.6,29,0.00,CLR,,0.00,WeatherDisplay:10.37,2013-07-01 17:20:00,
2013-07-01 12:22:00,84.0,48.3,28.94,NE,45,3.6,4.7,29,0.00,CLR,,0.00,WeatherDisplay:10.37,2013-07-01 17:22:00,
2013-07-01 12:23:00,84.0,48.3,28.94,NNE,22,3.3,4.6,29,0.00,CLR,,0.00,WeatherDisplay:10.37,2013-07-01 17:23:00,
2013-07-01 12:24:00,84.2,48.5,28.94,North,0,3.3,4.6,29,0.00,CLR,,0.00,WeatherDisplay:10.37,2013-07-01 17:24:00,
2013-07-01 12:25:00,84.0,48.3,28.94,NNE,22,2.6,4.6,29,0.00,CLR,,0.00,WeatherDisplay:10.37,2013-07-01 17:25:00,
2013-07-01 12:26:00,83.7,47.1,28.94,ENE,68,4.5,5.9,28,0.00,CLR,,0.00,WeatherDisplay:10.37,2013-07-01 17:26:00,
2013-07-01 12:28:00,83.1,46.6,28.94,ENE,68,3.3,6.9,28,0.00,CLR,,0.00,WeatherDisplay:10.37,2013-07-01 17:28:00,
2013-07-01 12:29:00,82.4,44.1,28.94,ENE,68,4.9,6.2,26,0.00,CLR,,0.00,WeatherDisplay:10.37,2013-07-01 17:29:00,
2013-07-01 12:30:00,82.4,44.1,28.94,NNE,22,4.5,5.8,26,0.00,CLR,,0.00,WeatherDisplay:10.37,2013-07-01 17:30:00,
2013-07-01 12:31:00,82.6,47.1,28.94,NNE,22,2.9,4.6,29,0.00,CLR,,0.00,WeatherDisplay:10.37,2013-07-01 17:31:00,
2013-07-01 12:33:00,82.8,46.3,28.94,NNE,22,6.0,10.4,28,0.00,CLR,,0.00,WeatherDisplay:10.37,2013-07-01 17:33:00,
2013-07-01 12:35:00,82.6,46.2,28.94,NE,45,5.9,8.1,28,0.00,CLR,,0.00,WeatherDisplay:10.37,2013-07-01 17:35:00,
2013-07-01 12:36:00,82.6,46.2,28.94,NE,45,5.9,5.9,28,0.00,CLR,,0.00,WeatherDisplay:10.37,2013-07-01 17:36:00,
2013-07-01 12:38:00,83.3,45.8,28.94,NNE,22,6.2,6.9,27,0.00,CLR,,0.00,WeatherDisplay:10.37,2013-07-01 17:38:00,
2013-07-01 12:40:00,82.4,44.1,28.94,East,90,4.7,6.4,26,0.00,CLR,,0.00,WeatherDisplay:10.37,2013-07-01 17:40:00,
2013-07-01 12:41:00,82.4,44.1,28.94,ENE,68,4.9,6.9,26,0.00,CLR,,0.00,WeatherDisplay:10.37,2013-07-01 17:41:00,
2013-07-01 12:42:00,82.0,43.8,28.94,East,90,4.5,6.9,26,0.00,CLR,,0.00,WeatherDisplay:10.37,2013-07-01 17:42:00,
2013-07-01 12:44:00,82.8,45.4,28.94,NE,45,3.8,5.9,27,0.00,CLR,,0.00,WeatherDisplay:10.37,2013-07-01 17:44:00,
2013-07-01 12:46:00,82.0,44.7,28.94,East,90,6.2,8.1,27,0.00,CLR,,0.00,WeatherDisplay:10.37,2013-07-01 17:46:00,
2013-07-01 12:47:00,81.9,43.6,28.94,NE,45,6.9,8.1,26,0.00,CLR,,0.00,WeatherDisplay:10.37,2013-07-01 17:47:00,
2013-07-01 12:48:00,81.3,42.1,28.94,NE,45,6.2,8.1,25,0.00,CLR,,0.00,WeatherDisplay:10.37,2013-07-01 17:48:00,
2013-07-01 12:49:00,82.2,46.8,28.94,North,0,0.9,8.1,29,0.00,CLR,,0.00,WeatherDisplay:10.37,2013-07-01 17:49:00,
2013-07-01 12:51:00,83.1,46.6,28.94,NE,45,4.7,6.0,28,0.00,CLR,,0.00,WeatherDisplay:10.37,2013-07-01 17:51:00,
2013-07-01 12:52:00,83.1,44.7,28.94,NNE,22,4.9,6.9,26,0.00,CLR,,0.00,WeatherDisplay:10.37,2013-07-01 17:52:00,
2013-07-01 12:53:00,82.8,44.4,28.94,East,90,4.9,8.1,26,0.00,CLR,,0.00,WeatherDisplay:10.37,2013-07-01 17:53:00,
2013-07-01 12:54:00,81.7,44.4,28.94,North,0,6.0,6.9,27,0.00,CLR,,0.00,WeatherDisplay:10.37,2013-07-01 17:54:00,
2013-07-01 12:56:00,82.0,45.7,28.91,North,0,4.5,6.4,28,0.00,CLR,,0.00,WeatherDisplay:10.37,2013-07-01 17:56:00,
2013-07-01 12:58:00,82.2,46.8,28.91,North,0,3.3,5.8,29,0.00,CLR,,0.00,WeatherDisplay:10.37,2013-07-01 17:58:00,
2013-07-01 13:00:00,82.4,45.1,28.91,North,0,4.0,5.8,27,0.00,CLR,,0.00,WeatherDisplay:10.37,2013-07-01 18:00:00,
2013-07-01 13:01:00,82.8,44.4,28.91,NW,315,3.8,7.8,26,0.00,CLR,,0.00,WeatherDisplay:10.37,2013-07-01 18:01:00,
2013-07-01 13:03:00,82.6,44.2,28.91,NNE,22,4.3,5.8,26,0.00,CLR,,0.00,WeatherDisplay:10.37,2013-07-01 18:03:00,
2013-07-01 13:04:00,82.2,44.9,28.91,NNE,22,4.3,5.9,27,0.00,CLR,,0.00,WeatherDisplay:10.37,2013-07-01 18:04:00,
2013-07-01 13:06:00,82.8,44.4,28.91,NNW,338,2.6,5.4,26,0.00,CLR,,0.00,WeatherDisplay:10.37,2013-07-01 18:06:00,
2013-07-01 13:07:00,82.6,44.2,28.91,NNE,22,2.6,3.6,26,0.00,CLR,,0.00,WeatherDisplay:10.37,2013-07-01 18:07:00,
2013-07-01 13:08:00,83.3,44.8,28.91,NNE,22,3.3,4.6,26,0.00,CLR,,0.00,WeatherDisplay:10.37,2013-07-01 18:08:00,
2013-07-01 13:09:00,83.3,44.8,28.91,North,0,2.2,3.5,26,0.00,CLR,,0.00,WeatherDisplay:10.37,2013-07-01 18:09:00,
2013-07-01 13:10:00,83.5,46.0,28.91,North,0,2.2,3.5,27,0.00,CLR,,0.00,WeatherDisplay:10.37,2013-07-01 18:10:00,
2013-07-01 13:11:00,83.8,46.3,28.91,North,0,2.9,4.6,27,0.00,CLR,,0.00,WeatherDisplay:10.37,2013-07-01 18:11:00,
2013-07-01 13:12:00,84.0,46.4,28.91,North,0,2.4,3.5,27,0.00,CLR,,0.00,WeatherDisplay:10.37,2013-07-01 18:12:00,
2013-07-01 13:13:00,83.5,47.9,28.91,NNE,22,4.9,6.9,29,0.00,CLR,,0.00,WeatherDisplay:10.37,2013-07-01 18:13:00,
2013-07-01 13:14:00,83.5,47.9,28.91,North,0,4.9,5.8,29,0.00,CLR,,0.00,WeatherDisplay:10.37,2013-07-01 18:14:00,
2013-07-01 13:15:00,83.5,46.0,28.91,ENE,68,3.8,5.8,27,0.00,CLR,,0.00,WeatherDisplay:10.37,2013-07-01 18:15:00,
2013-07-01 13:17:00,83.1,46.6,28.91,ENE,68,3.8,6.9,28,0.00,CLR,,0.00,WeatherDisplay:10.37,2013-07-01 18:17:00,
2013-07-01 13:18:00,82.8,47.3,28.91,NW,315,3.6,6.9,29,0.00,CLR,,0.00,WeatherDisplay:10.37,2013-07-01 18:18:00,
2013-07-01 13:19:00,82.9,45.5,28.91,NNE,22,3.6,4.6,27,0.00,CLR,,0.00,WeatherDisplay:10.37,2013-07-01 18:19:00,
2013-07-01 13:20:00,82.9,45.5,28.91,NNE,22,3.6,4.6,27,0.00,CLR,,0.00,WeatherDisplay:10.37,2013-07-01 18:20:00,
2013-07-01 13:22:00,82.6,43.2,28.91,NE,45,4.0,5.8,25,0.00,CLR,,0.00,WeatherDisplay:10.37,2013-07-01 18:22:00,
2013-07-01 13:23:00,82.6,45.2,28.91,NNW,338,3.8,7.6,27,0.00,CLR,,0.00,WeatherDisplay:10.37,2013-07-01 18:23:00,
2013-07-01 13:25:00,82.6,46.2,28.91,North,0,5.6,8.1,28,0.00,CLR,,0.00,WeatherDisplay:10.37,2013-07-01 18:25:00,
2013-07-01 13:28:00,82.8,44.4,28.91,NE,45,4.0,5.8,26,0.00,CLR,,0.00,WeatherDisplay:10.37,2013-07-01 18:28:00,
2013-07-01 13:29:00,82.6,44.2,28.91,NNE,22,3.8,6.2,26,0.00,CLR,,0.00,WeatherDisplay:10.37,2013-07-01 18:29:00,
2013-07-01 13:30:00,82.4,44.1,28.91,NE,45,4.9,4.9,26,0.00,CLR,,0.00,WeatherDisplay:10.37,2013-07-01 18:30:00,
2013-07-01 13:33:00,82.9,45.5,28.91,ENE,68,3.3,4.6,27,0.00,CLR,,0.00,WeatherDisplay:10.37,2013-07-01 18:33:00,
2013-07-01 13:34:00,82.9,45.5,28.91,NE,45,3.3,4.6,27,0.00,CLR,,0.00,WeatherDisplay:10.37,2013-07-01 18:34:00,
2013-07-01 13:35:00,82.4,45.1,28.91,ENE,68,4.7,5.8,27,0.00,CLR,,0.00,WeatherDisplay:10.37,2013-07-01 18:35:00,
2013-07-01 13:37:00,82.2,43.9,28.91,East,90,5.4,6.0,26,0.00,CLR,,0.00,WeatherDisplay:10.37,2013-07-01 18:37:00,
2013-07-01 13:38:00,82.4,46.0,28.91,NE,45,4.0,5.8,28,0.00,CLR,,0.00,WeatherDisplay:10.37,2013-07-01 18:38:00,
2013-07-01 13:39:00,82.4,46.0,28.91,ENE,68,4.0,5.8,28,0.00,CLR,,0.00,WeatherDisplay:10.37,2013-07-01 18:39:00,
2013-07-01 13:40:00,82.2,45.9,28.91,NE,45,4.9,6.9,28,0.00,CLR,,0.00,WeatherDisplay:10.37,2013-07-01 18:40:00,
2013-07-01 13:42:00,82.4,46.0,28.91,East,90,4.3,5.8,28,0.00,CLR,,0.00,WeatherDisplay:10.37,2013-07-01 18:42:00,
2013-07-01 13:43:00,82.4,46.0,28.91,NNE,22,4.5,5.8,28,0.00,CLR,,0.00,WeatherDisplay:10.37,2013-07-01 18:43:00,
2013-07-01 13:44:00,82.8,47.3,28.91,North,0,3.8,7.6,29,0.00,CLR,,0.00,WeatherDisplay:10.37,2013-07-01 18:44:00,
2013-07-01 13:45:00,82.6,47.1,28.91,NNE,22,5.9,8.1,29,0.00,CLR,,0.00,WeatherDisplay:10.37,2013-07-01 18:45:00,
2013-07-01 13:47:00,82.4,46.0,28.91,NE,45,4.5,5.8,28,0.00,CLR,,0.00,WeatherDisplay:10.37,2013-07-01 18:47:00,
2013-07-01 13:49:00,82.8,47.3,28.91,NNE,22,3.8,6.0,29,0.00,CLR,,0.00,WeatherDisplay:10.37,2013-07-01 18:49:00,
2013-07-01 13:50:00,82.9,47.4,28.91,NNE,22,4.3,5.8,29,0.00,CLR,,0.00,WeatherDisplay:10.37,2013-07-01 18:50:00,
2013-07-01 13:52:00,83.1,46.6,28.91,NE,45,3.8,6.2,28,0.00,CLR,,0.00,WeatherDisplay:10.37,2013-07-01 18:52:00,
2013-07-01 13:55:00,82.4,45.1,28.91,ENE,68,4.5,8.1,27,0.00,CLR,,0.00,WeatherDisplay:10.37,2013-07-01 18:55:00,
2013-07-01 13:57:00,82.4,46.9,28.91,NNE,22,4.3,4.3,29,0.00,CLR,,0.00,WeatherDisplay:10.37,2013-07-01 18:57:00,
2013-07-01 14:00:00,82.8,45.4,28.91,NNE,22,5.4,8.1,27,0.00,CLR,,0.00,WeatherDisplay:10.37,2013-07-01 19:00:00,
2013-07-01 14:01:00,82.4,44.1,28.91,NNE,22,6.2,8.1,26,0.00,CLR,,0.00,WeatherDisplay:10.37,2013-07-01 19:01:00,
2013-07-01 14:03:00,82.8,44.4,28.91,North,0,4.9,4.9,26,0.00,CLR,,0.00,WeatherDisplay:10.37,2013-07-01 19:03:00,
2013-07-01 14:06:00,83.1,44.7,28.91,NNE,22,5.4,6.0,26,0.00,CLR,,0.00,WeatherDisplay:10.37,2013-07-01 19:06:00,
2013-07-01 14:08:00,83.1,44.7,28.91,NNE,22,5.9,9.2,26,0.00,CLR,,0.00,WeatherDisplay:10.37,2013-07-01 19:08:00,
2013-07-01 14:11:00,83.5,47.9,28.91,NNE,22,5.6,6.9,29,0.00,CLR,,0.00,WeatherDisplay:10.37,2013-07-01 19:11:00,
2013-07-01 14:12:00,83.5,46.0,28.91,NNE,22,4.0,6.9,27,0.00,CLR,,0.00,WeatherDisplay:10.37,2013-07-01 19:12:00,
2013-07-01 14:13:00,83.7,48.0,28.91,NNE,22,0.9,3.5,29,0.00,CLR,,0.00,WeatherDisplay:10.37,2013-07-01 19:13:00,
2013-07-01 14:14:00,84.0,48.3,28.91,NE,45,0.9,4.6,29,0.00,CLR,,0.00,WeatherDisplay:10.37,2013-07-01 19:14:00,
2013-07-01 14:16:00,84.0,46.4,28.91,NNE,22,3.3,5.8,27,0.00,CLR,,0.00,WeatherDisplay:10.37,2013-07-01 19:16:00,
2013-07-01 14:17:00,84.2,46.6,28.91,NE,45,3.3,5.8,27,0.00,CLR,,0.00,WeatherDisplay:10.37,2013-07-01 19:17:00,
2013-07-01 14:18:00,83.7,46.1,28.91,NE,45,6.2,9.8,27,0.00,CLR,,0.00,WeatherDisplay:10.37,2013-07-01 19:18:00,
2013-07-01 14:19:00,83.3,44.8,28.91,NE,45,7.1,11.5,26,0.00,CLR,,0.00,WeatherDisplay:10.37,2013-07-01 19:19:00,
2013-07-01 14:21:00,83.5,46.0,28.91,NNE,22,4.5,6.9,27,0.00,CLR,,0.00,WeatherDisplay:10.37,2013-07-01 19:21:00,
2013-07-01 14:22:00,83.5,46.0,28.91,NNE,22,4.0,4.6,27,0.00,CLR,,0.00,WeatherDisplay:10.37,2013-07-01 19:22:00,
2013-07-01 14:23:00,82.9,46.5,28.91,NNE,22,4.0,6.9,28,0.00,CLR,,0.00,WeatherDisplay:10.37,2013-07-01 19:23:00,
2013-07-01 14:24:00,82.4,43.0,28.91,North,0,4.0,6.9,25,0.00,CLR,,0.00,WeatherDisplay:10.37,2013-07-01 19:24:00,
2013-07-01 14:26:00,82.4,43.0,28.88,NNE,22,5.6,8.1,25,0.00,CLR,,0.00,WeatherDisplay:10.37,2013-07-01 19:26:00,
2013-07-01 14:27:00,82.2,43.9,28.88,NNE,22,5.9,5.9,26,0.00,CLR,,0.00,WeatherDisplay:10.37,2013-07-01 19:27:00,
2013-07-01 14:28:00,82.2,43.9,28.88,NNE,22,4.5,5.8,26,0.00,CLR,,0.00,WeatherDisplay:10.37,2013-07-01 19:28:00,
2013-07-01 14:29:00,82.6,44.2,28.88,North,0,2.4,3.5,26,0.00,CLR,,0.00,WeatherDisplay:10.37,2013-07-01 19:29:00,
2013-07-01 14:32:00,83.5,45.0,28.88,NNE,22,4.3,4.6,26,0.00,CLR,,0.00,WeatherDisplay:10.37,2013-07-01 19:32:00,
2013-07-01 14:33:00,83.3,44.8,28.88,ENE,68,5.4,10.9,26,0.00,CLR,,0.00,WeatherDisplay:10.37,2013-07-01 19:33:00,
2013-07-01 14:34:00,83.3,44.8,28.88,NNE,22,5.9,11.5,26,0.00,CLR,,0.00,WeatherDisplay:10.37,2013-07-01 19:34:00,
2013-07-01 14:35:00,83.3,44.8,28.88,NE,45,4.7,12.1,26,0.00,CLR,,0.00,WeatherDisplay:10.37,2013-07-01 19:35:00,
2013-07-01 14:37:00,82.8,43.3,28.88,North,0,6.4,8.1,25,0.00,CLR,,0.00,WeatherDisplay:10.37,2013-07-01 19:37:00,
2013-07-01 14:38:00,82.8,43.3,28.88,NE,45,4.7,8.1,25,0.00,CLR,,0.00,WeatherDisplay:10.37,2013-07-01 19:38:00,
2013-07-01 14:40:00,82.9,44.5,28.91,North,0,4.3,6.0,26,0.00,CLR,,0.00,WeatherDisplay:10.37,2013-07-01 19:40:00,
2013-07-01 14:41:00,82.8,44.4,28.91,ENE,68,6.2,6.2,26,0.00,CLR,,0.00,WeatherDisplay:10.37,2013-07-01 19:41:00,
2013-07-01 14:43:00,83.1,44.7,28.91,ENE,68,5.9,10.4,26,0.00,CLR,,0.00,WeatherDisplay:10.37,2013-07-01 19:43:00,
2013-07-01 14:45:00,83.1,44.7,28.91,ENE,68,4.7,8.1,26,0.00,CLR,,0.00,WeatherDisplay:10.37,2013-07-01 19:45:00,
2013-07-01 14:46:00,83.1,44.7,28.91,NE,45,4.7,9.2,26,0.00,CLR,,0.00,WeatherDisplay:10.37,2013-07-01 19:46:00,
2013-07-01 14:48:00,83.1,45.7,28.91,NE,45,3.3,7.1,27,0.00,CLR,,0.00,WeatherDisplay:10.37,2013-07-01 19:48:00,
2013-07-01 14:50:00,82.9,43.5,28.91,ENE,68,6.0,8.1,25,0.00,CLR,,0.00,WeatherDisplay:10.37,2013-07-01 19:50:00,
2013-07-01 14:51:00,83.1,44.7,28.91,ENE,68,6.0,7.8,26,0.00,CLR,,0.00,WeatherDisplay:10.37,2013-07-01 19:51:00,
2013-07-01 14:53:00,82.0,43.8,28.91,NE,45,4.9,9.8,26,0.00,CLR,,0.00,WeatherDisplay:10.37,2013-07-01 19:53:00,
2013-07-01 14:54:00,82.0,43.8,28.91,ESE,112,4.9,9.2,26,0.00,CLR,,0.00,WeatherDisplay:10.37,2013-07-01 19:54:00,
2013-07-01 14:55:00,82.6,45.2,28.91,East,90,4.0,5.8,27,0.00,CLR,,0.00,WeatherDisplay:10.37,2013-07-01 19:55:00,
2013-07-01 14:56:00,82.6,45.2,28.91,NNE,22,4.0,4.6,27,0.00,CLR,,0.00,WeatherDisplay:10.37,2013-07-01 19:56:00,
2013-07-01 14:57:00,82.9,46.5,28.91,ENE,68,4.7,6.9,28,0.00,CLR,,0.00,WeatherDisplay:10.37,2013-07-01 19:57:00,
2013-07-01 14:59:00,83.3,47.7,28.91,NE,45,4.7,6.9,29,0.00,CLR,,0.00,WeatherDisplay:10.37,2013-07-01 19:59:00,
2013-07-01 15:00:00,83.5,46.0,28.91,ENE,68,5.4,6.9,27,0.00,CLR,,0.00,WeatherDisplay:10.37,2013-07-01 20:00:00,
2013-07-01 15:01:00,83.3,43.8,28.91,NNE,22,4.5,5.8,25,0.00,CLR,,0.00,WeatherDisplay:10.37,2013-07-01 20:01:00,
2013-07-01 15:03:00,84.0,45.4,28.91,North,0,3.1,3.5,26,0.00,CLR,,0.00,WeatherDisplay:10.37,2013-07-01 20:03:00,
2013-07-01 15:05:00,84.7,45.0,28.91,NE,45,4.7,8.1,25,0.00,CLR,,0.00,WeatherDisplay:10.37,2013-07-01 20:05:00,
2013-07-01 15:06:00,84.9,45.2,28.91,East,90,2.6,8.1,25,0.00,CLR,,0.00,WeatherDisplay:10.37,2013-07-01 20:06:00,
2013-07-01 15:08:00,85.1,46.4,28.91,East,90,6.4,11.5,26,0.00,CLR,,0.00,WeatherDisplay:10.37,2013-07-01 20:08:00,
2013-07-01 15:10:00,84.7,43.9,28.88,NE,45,3.3,4.6,24,0.00,CLR,,0.00,WeatherDisplay:10.37,2013-07-01 20:10:00,
2013-07-01 15:11:00,84.9,45.2,28.88,NE,45,3.6,4.6,25,0.00,CLR,,0.00,WeatherDisplay:10.37,2013-07-01 20:11:00,
2013-07-01 15:12:00,85.5,46.7,28.88,ENE,68,2.0,3.5,26,0.00,CLR,,0.00,WeatherDisplay:10.37,2013-07-01 20:12:00,
2013-07-01 15:13:00,84.9,44.1,28.88,NNE,22,2.9,10.7,24,0.00,CLR,,0.00,WeatherDisplay:10.37,2013-07-01 20:13:00,
2013-07-01 15:16:00,84.9,44.1,28.88,North,0,4.3,5.8,24,0.00,CLR,,0.00,WeatherDisplay:10.37,2013-07-01 20:16:00,
2013-07-01 15:17:00,84.9,44.1,28.88,NNW,338,4.3,5.8,24,0.00,CLR,,0.00,WeatherDisplay:10.37,2013-07-01 20:17:00,
2013-07-01 15:19:00,84.6,44.9,28.88,NNE,22,2.9,4.6,25,0.00,CLR,,0.00,WeatherDisplay:10.37,2013-07-01 20:19:00,
2013-07-01 15:22:00,84.4,44.7,28.88,ENE,68,2.0,6.0,25,0.00,CLR,,0.00,WeatherDisplay:10.37,2013-07-01 20:22:00,
2013-07-01 15:23:00,84.6,45.9,28.88,NNE,22,3.1,5.8,26,0.00,CLR,,0.00,WeatherDisplay:10.37,2013-07-01 20:23:00,
2013-07-01 15:24:00,84.7,45.0,28.88,North,0,3.1,5.8,25,0.00,CLR,,0.00,WeatherDisplay:10.37,2013-07-01 20:24:00,
2013-07-01 15:27:00,85.3,45.5,28.91,NNE,22,2.6,5.8,25,0.00,CLR,,0.00,WeatherDisplay:10.37,2013-07-01 20:27:00,
2013-07-01 15:28:00,85.1,45.3,28.91,ENE,68,3.3,8.1,25,0.00,CLR,,0.00,WeatherDisplay:10.37,2013-07-01 20:28:00,
2013-07-01 15:30:00,84.2,43.5,28.91,NE,45,6.4,8.1,24,0.00,CLR,,0.00,WeatherDisplay:10.37,2013-07-01 20:30:00,
2013-07-01 15:33:00,81.5,43.3,28.91,NE,45,6.4,10.4,26,0.00,CLR,,0.00,WeatherDisplay:10.37,2013-07-01 20:33:00,
2013-07-01 15:34:00,81.5,42.3,28.91,East,90,6.4,8.1,25,0.00,CLR,,0.00,WeatherDisplay:10.37,2013-07-01 20:34:00,
2013-07-01 15:35:00,81.9,44.6,28.91,East,90,4.9,8.1,27,0.00,CLR,,0.00,WeatherDisplay:10.37,2013-07-01 20:35:00,
2013-07-01 15:39:00,82.4,43.0,28.91,NNE,22,5.4,6.9,25,0.00,CLR,,0.00,WeatherDisplay:10.37,2013-07-01 20:39:00,
2013-07-01 15:40:00,83.3,45.8,28.91,ENE,68,2.6,4.6,27,0.00,CLR,,0.00,WeatherDisplay:10.37,2013-07-01 20:40:00,
2013-07-01 15:41:00,83.3,45.8,28.91,ENE,68,2.6,4.6,27,0.00,CLR,,0.00,WeatherDisplay:10.37,2013-07-01 20:41:00,
2013-07-01 15:44:00,83.3,43.8,28.91,North,0,7.1,8.1,25,0.00,CLR,,0.00,WeatherDisplay:10.37,2013-07-01 20:44:00,
2013-07-01 15:45:00,83.1,43.7,28.91,NE,55,7.0,10.0,25,0.00,CLR,,0.00,WeatherDisplay:10.37,2013-07-01 20:45:00,
2013-07-01 15:46:00,82.9,43.5,28.91,NE,45,5.6,10.4,25,0.00,CLR,,0.00,WeatherDisplay:10.37,2013-07-01 20:46:00,
2013-07-01 15:49:00,82.6,42.1,28.91,East,90,7.6,8.1,24,0.00,CLR,,0.00,WeatherDisplay:10.37,2013-07-01 20:49:00,
2013-07-01 15:50:00,82.6,42.2,28.91,ENE,61,7.0,11.0,24,0.00,CLR,,0.00,WeatherDisplay:10.37,2013-07-01 20:50:00,
2013-07-01 15:51:00,82.4,44.1,28.91,ENE,68,3.1,5.8,26,0.00,CLR,,0.00,WeatherDisplay:10.37,2013-07-01 20:51:00,
2013-07-01 15:52:00,82.8,44.4,28.91,ENE,68,3.1,4.6,26,0.00,CLR,,0.00,WeatherDisplay:10.37,2013-07-01 20:52:00,
2013-07-01 15:55:00,83.4,44.9,28.91,NE,53,3.0,7.0,26,0.00,CLR,,0.00,WeatherDisplay:10.37,2013-07-01 20:55:00,
2013-07-01 15:56:00,83.8,45.3,28.91,NNW,338,4.0,8.1,26,0.00,CLR,,0.00,WeatherDisplay:10.37,2013-07-01 20:56:00,
2013-07-01 15:57:00,83.8,45.3,28.91,North,0,4.0,5.8,26,0.00,CLR,,0.00,WeatherDisplay:10.37,2013-07-01 20:57:00,
2013-07-01 16:00:00,83.5,43.9,28.91,NE,45,6.2,9.2,25,0.00,CLR,,0.00,WeatherDisplay:10.37,2013-07-01 21:00:00,
2013-07-01 16:01:00,83.1,43.6,28.91,NNE,22,6.0,8.1,25,0.00,CLR,,0.00,WeatherDisplay:10.37,2013-07-01 21:01:00,
2013-07-01 16:02:00,83.1,43.6,28.91,NNE,22,3.8,8.1,25,0.00,CLR,,0.00,WeatherDisplay:10.37,2013-07-01 21:02:00,
2013-07-01 16:05:00,84.0,45.4,28.91,NE,45,3.1,5.8,26,0.00,CLR,,0.00,WeatherDisplay:10.37,2013-07-01 21:05:00,
2013-07-01 16:07:00,84.2,44.6,28.91,NNE,22,2.6,5.8,25,0.00,CLR,,0.00,WeatherDisplay:10.37,2013-07-01 21:07:00,
2013-07-01 16:08:00,84.2,44.6,28.91,NNE,22,3.8,4.6,25,0.00,CLR,,0.00,WeatherDisplay:10.37,2013-07-01 21:08:00,
2013-07-01 16:11:00,84.0,45.4,28.91,NNE,22,4.5,5.8,26,0.00,CLR,,0.00,WeatherDisplay:10.37,2013-07-01 21:11:00,
2013-07-01 16:12:00,84.2,45.6,28.91,NNE,22,3.1,4.6,26,0.00,CLR,,0.00,WeatherDisplay:10.37,2013-07-01 21:12:00,
2013-07-01 16:13:00,84.2,45.6,28.91,NE,45,3.1,6.2,26,0.00,CLR,,0.00,WeatherDisplay:10.37,2013-07-01 21:13:00,
2013-07-01 16:14:00,84.0,45.4,28.91,NE,45,6.2,7.8,26,0.00,CLR,,0.00,WeatherDisplay:10.37,2013-07-01 21:14:00,
2013-07-01 16:16:00,83.3,42.7,28.91,ENE,68,6.2,6.2,24,0.00,CLR,,0.00,WeatherDisplay:10.37,2013-07-01 21:16:00,
2013-07-01 16:17:00,82.9,42.4,28.91,ENE,68,5.6,8.1,24,0.00,CLR,,0.00,WeatherDisplay:10.37,2013-07-01 21:17:00,
2013-07-01 16:19:00,82.9,43.5,28.91,ENE,68,6.7,8.1,25,0.00,CLR,,0.00,WeatherDisplay:10.37,2013-07-01 21:19:00,
2013-07-01 16:21:00,82.6,42.1,28.91,ENE,68,6.4,8.1,24,0.00,CLR,,0.00,WeatherDisplay:10.37,2013-07-01 21:21:00,
2013-07-01 16:22:00,82.6,44.2,28.91,ENE,68,5.9,8.1,26,0.00,CLR,,0.00,WeatherDisplay:10.37,2013-07-01 21:22:00,
2013-07-01 16:23:00,82.6,44.2,28.91,North,0,5.9,6.9,26,0.00,CLR,,0.00,WeatherDisplay:10.37,2013-07-01 21:23:00,
2013-07-01 16:24:00,82.8,44.4,28.91,North,0,3.1,4.6,26,0.00,CLR,,0.00,WeatherDisplay:10.37,2013-07-01 21:24:00,
2013-07-01 16:25:00,82.8,44.4,28.91,NE,45,3.1,4.6,26,0.00,CLR,,0.00,WeatherDisplay:10.37,2013-07-01 21:25:00,
2013-07-01 16:26:00,82.9,44.5,28.91,ENE,68,3.3,4.6,26,0.00,CLR,,0.00,WeatherDisplay:10.37,2013-07-01 21:26:00,
2013-07-01 16:27:00,82.9,44.5,28.91,NNE,22,4.0,5.8,26,0.00,CLR,,0.00,WeatherDisplay:10.37,2013-07-01 21:27:00,
2013-07-01 16:29:00,82.8,43.3,28.91,NE,45,6.0,6.9,25,0.00,CLR,,0.00,WeatherDisplay:10.37,2013-07-01 21:29:00,
2013-07-01 16:30:00,82.7,43.3,28.91,NE,49,6.0,7.0,25,0.00,CLR,,0.00,WeatherDisplay:10.37,2013-07-01 21:30:00,
2013-07-01 16:31:00,82.8,43.3,28.91,NNE,22,3.6,5.8,25,0.00,CLR,,0.00,WeatherDisplay:10.37,2013-07-01 21:31:00,
2013-07-01 16:33:00,83.1,43.6,28.91,ENE,68,3.1,4.6,25,0.00,CLR,,0.00,WeatherDisplay:10.37,2013-07-01 21:33:00,
2013-07-01 16:34:00,83.3,44.8,28.91,NE,45,3.1,4.6,26,0.00,CLR,,0.00,WeatherDisplay:10.37,2013-07-01 21:34:00,
2013-07-01 16:35:00,83.3,44.8,28.91,NE,45,3.1,4.6,26,0.00,CLR,,0.00,WeatherDisplay:10.37,2013-07-01 21:35:00,
2013-07-01 16:36:00,83.7,46.1,28.91,NNE,22,2.9,3.6,27,0.00,CLR,,0.00,WeatherDisplay:10.37,2013-07-01 21:36:00,
2013-07-01 16:38:00,83.8,46.3,28.91,ENE,68,2.6,4.0,27,0.00,CLR,,0.00,WeatherDisplay:10.37,2013-07-01 21:38:00,
2013-07-01 16:39:00,83.7,47.1,28.88,ENE,68,4.0,7.6,28,0.00,CLR,,0.00,WeatherDisplay:10.37,2013-07-01 21:39:00,
2013-07-01 16:40:00,83.3,43.8,28.88,ENE,68,6.0,8.1,25,0.00,CLR,,0.00,WeatherDisplay:10.37,2013-07-01 21:40:00,
2013-07-01 16:41:00,83.3,43.8,28.88,NE,45,6.0,8.1,25,0.00,CLR,,0.00,WeatherDisplay:10.37,2013-07-01 21:41:00,
2013-07-01 16:44:00,83.5,45.0,28.88,NE,45,3.6,4.6,26,0.00,CLR,,0.00,WeatherDisplay:10.37,2013-07-01 21:44:00,
2013-07-01 16:45:00,83.3,44.8,28.88,NNE,22,3.6,4.6,26,0.00,CLR,,0.00,WeatherDisplay:10.37,2013-07-01 21:45:00,
2013-07-01 16:46:00,83.3,44.8,28.88,NE,45,1.2,4.7,26,0.00,CLR,,0.00,WeatherDisplay:10.37,2013-07-01 21:46:00,
2013-07-01 16:50:00,82.6,44.2,28.88,East,90,4.7,5.8,26,0.00,CLR,,0.00,WeatherDisplay:10.37,2013-07-01 21:50:00,
2013-07-01 16:52:00,82.6,45.2,28.88,NW,315,2.9,4.6,27,0.00,CLR,,0.00,WeatherDisplay:10.37,2013-07-01 21:52:00,
2013-07-01 16:55:00,82.8,42.3,28.91,ENE,68,4.5,5.8,24,0.00,CLR,,0.00,WeatherDisplay:10.37,2013-07-01 21:55:00,
2013-07-01 16:57:00,83.3,44.8,28.91,NW,315,1.6,3.5,26,0.00,CLR,,0.00,WeatherDisplay:10.37,2013-07-01 21:57:00,
2013-07-01 17:00:00,83.3,43.8,28.91,NNE,22,2.9,3.6,25,0.00,CLR,,0.00,WeatherDisplay:10.37,2013-07-01 22:00:00,
2013-07-01 17:01:00,83.1,44.7,28.91,North,0,3.8,4.6,26,0.00,CLR,,0.00,WeatherDisplay:10.37,2013-07-01 22:01:00,
2013-07-01 17:02:00,83.5,45.0,28.91,NNE,22,2.0,4.6,26,0.00,CLR,,0.00,WeatherDisplay:10.37,2013-07-01 22:02:00,
2013-07-01 17:03:00,83.5,45.0,28.91,NE,45,2.0,2.3,26,0.00,CLR,,0.00,WeatherDisplay:10.37,2013-07-01 22:03:00,
2013-07-01 17:05:00,83.5,45.0,28.91,NE,35,3.0,5.0,26,0.00,CLR,,0.00,WeatherDisplay:10.37,2013-07-01 22:05:00,
2013-07-01 17:06:00,83.3,43.8,28.91,NNE,22,5.9,6.9,25,0.00,CLR,,0.00,WeatherDisplay:10.37,2013-07-01 22:06:00,
2013-07-01 17:07:00,83.3,43.8,28.91,NE,45,4.3,5.8,25,0.00,CLR,,0.00,WeatherDisplay:10.37,2013-07-01 22:07:00,
2013-07-01 17:08:00,83.3,43.8,28.91,NNE,22,4.0,4.6,25,0.00,CLR,,0.00,WeatherDisplay:10.37,2013-07-01 22:08:00,
2013-07-01 17:10:00,83.4,43.9,28.91,NE,43,2.0,7.0,25,0.00,CLR,,0.00,WeatherDisplay:10.37,2013-07-01 22:10:00,
2013-07-01 17:11:00,84.0,45.4,28.91,NNE,22,1.4,1.4,26,0.00,CLR,,0.00,WeatherDisplay:10.37,2013-07-01 22:11:00,
2013-07-01 17:13:00,84.6,44.9,28.91,North,0,1.2,3.5,25,0.00,CLR,,0.00,WeatherDisplay:10.37,2013-07-01 22:13:00,
2013-07-01 17:14:00,84.7,45.0,28.91,North,0,1.4,4.6,25,0.00,CLR,,0.00,WeatherDisplay:10.37,2013-07-01 22:14:00,
2013-07-01 17:15:00,84.7,45.0,28.91,NW,315,2.0,4.0,25,0.00,CLR,,0.00,WeatherDisplay:10.37,2013-07-01 22:15:00,
2013-07-01 17:16:00,84.7,45.0,28.91,NNW,338,2.0,4.6,25,0.00,CLR,,0.00,WeatherDisplay:10.37,2013-07-01 22:16:00,
2013-07-01 17:17:00,84.7,45.0,28.91,NE,45,3.6,4.6,25,0.00,CLR,,0.00,WeatherDisplay:10.37,2013-07-01 22:17:00,
2013-07-01 17:18:00,84.7,45.0,28.91,NE,45,1.2,3.5,25,0.00,CLR,,0.00,WeatherDisplay:10.37,2013-07-01 22:18:00,
2013-07-01 17:19:00,84.6,44.9,28.91,NE,45,2.6,3.5,25,0.00,CLR,,0.00,WeatherDisplay:10.37,2013-07-01 22:19:00,
2013-07-01 17:20:00,84.2,44.6,28.91,ESE,112,2.6,5.4,25,0.00,CLR,,0.00,WeatherDisplay:10.37,2013-07-01 22:20:00,
2013-07-01 17:21:00,84.2,44.6,28.91,East,90,3.1,6.7,25,0.00,CLR,,0.00,WeatherDisplay:10.37,2013-07-01 22:21:00,
2013-07-01 17:22:00,83.1,42.6,28.91,East,90,4.7,6.9,24,0.00,CLR,,0.00,WeatherDisplay:10.37,2013-07-01 22:22:00,
2013-07-01 17:23:00,82.8,42.3,28.91,East,90,3.8,6.9,24,0.00,CLR,,0.00,WeatherDisplay:10.37,2013-07-01 22:23:00,
2013-07-01 17:24:00,82.4,42.0,28.91,East,90,4.7,4.7,24,0.00,CLR,,0.00,WeatherDisplay:10.37,2013-07-01 22:24:00,
2013-07-01 17:26:00,82.0,42.7,28.91,East,90,4.3,4.6,25,0.00,CLR,,0.00,WeatherDisplay:10.37,2013-07-01 22:26:00,
2013-07-01 17:27:00,82.0,42.7,28.91,NE,45,5.9,5.9,25,0.00,CLR,,0.00,WeatherDisplay:10.37,2013-07-01 22:27:00,
2013-07-01 17:28:00,82.0,42.7,28.91,ENE,68,5.6,5.8,25,0.00,CLR,,0.00,WeatherDisplay:10.37,2013-07-01 22:28:00,
2013-07-01 17:30:00,82.0,43.8,28.91,ENE,68,4.7,8.1,26,0.00,CLR,,0.00,WeatherDisplay:10.37,2013-07-01 22:30:00,
2013-07-01 17:31:00,82.0,43.8,28.91,ENE,68,4.9,5.9,26,0.00,CLR,,0.00,WeatherDisplay:10.37,2013-07-01 22:31:00,
2013-07-01 17:32:00,82.0,43.8,28.91,ENE,68,4.0,5.8,26,0.00,CLR,,0.00,WeatherDisplay:10.37,2013-07-01 22:32:00,
2013-07-01 17:33:00,82.0,43.8,28.91,ENE,68,4.0,5.8,26,0.00,CLR,,0.00,WeatherDisplay:10.37,2013-07-01 22:33:00,
2013-07-01 17:34:00,81.7,44.4,28.91,ESE,112,3.3,3.6,27,0.00,CLR,,0.00,WeatherDisplay:10.37,2013-07-01 22:34:00,
2013-07-01 17:35:00,81.3,44.1,28.91,NE,45,3.8,4.6,27,0.00,CLR,,0.00,WeatherDisplay:10.37,2013-07-01 22:35:00,
2013-07-01 17:36:00,81.5,44.3,28.91,ESE,112,4.0,5.6,27,0.00,CLR,,0.00,WeatherDisplay:10.37,2013-07-01 22:36:00,
2013-07-01 17:38:00,81.1,43.0,28.91,ENE,68,5.9,5.9,26,0.00,CLR,,0.00,WeatherDisplay:10.37,2013-07-01 22:38:00,
2013-07-01 17:39:00,81.1,43.0,28.91,ENE,68,4.3,6.9,26,0.00,CLR,,0.00,WeatherDisplay:10.37,2013-07-01 22:39:00,
2013-07-01 17:40:00,80.8,42.7,28.91,NE,45,4.3,5.8,26,0.00,CLR,,0.00,WeatherDisplay:10.37,2013-07-01 22:40:00,
2013-07-01 17:42:00,80.6,42.5,28.91,NNE,22,5.4,6.9,26,0.00,CLR,,0.00,WeatherDisplay:10.37,2013-07-01 22:42:00,
2013-07-01 17:44:00,80.6,42.5,28.91,East,90,4.3,5.8,26,0.00,CLR,,0.00,WeatherDisplay:10.37,2013-07-01 22:44:00,
2013-07-01 17:45:00,80.6,42.5,28.91,ENE,68,4.3,5.8,26,0.00,CLR,,0.00,WeatherDisplay:10.37,2013-07-01 22:45:00,
2013-07-01 17:47:00,80.6,43.5,28.91,ESE,112,3.8,5.8,27,0.00,CLR,,0.00,WeatherDisplay:10.37,2013-07-01 22:47:00,
2013-07-01 17:49:00,80.8,43.7,28.91,East,90,2.0,3.5,27,0.00,CLR,,0.00,WeatherDisplay:10.37,2013-07-01 22:49:00,
2013-07-01 17:50:00,80.8,44.6,28.91,ENE,77,2.0,6.0,28,0.00,CLR,,0.00,WeatherDisplay:10.37,2013-07-01 22:50:00,
2013-07-01 17:52:00,80.2,42.2,28.91,NE,45,3.8,5.8,26,0.00,CLR,,0.00,WeatherDisplay:10.37,2013-07-01 22:52:00,
2013-07-01 17:53:00,80.1,42.1,28.91,NE,45,3.8,4.6,26,0.00,CLR,,0.00,WeatherDisplay:10.37,2013-07-01 22:53:00,
2013-07-01 17:54:00,80.1,43.1,28.91,NE,45,2.6,4.6,27,0.00,CLR,,0.00,WeatherDisplay:10.37,2013-07-01 22:54:00,
2013-07-01 17:55:00,80.1,43.1,28.91,NE,45,2.9,3.5,27,0.00,CLR,,0.00,WeatherDisplay:10.37,2013-07-01 22:55:00,
2013-07-01 17:58:00,80.2,43.2,28.91,North,0,3.3,4.6,27,0.00,CLR,,0.00,WeatherDisplay:10.37,2013-07-01 22:58:00,
2013-07-01 17:59:00,81.0,43.8,28.91,NE,45,4.3,5.8,27,0.00,CLR,,0.00,WeatherDisplay:10.37,2013-07-01 22:59:00,
2013-07-01 18:00:00,81.0,43.8,28.91,East,90,3.3,4.6,27,0.00,CLR,,0.00,WeatherDisplay:10.37,2013-07-01 23:00:00,
2013-07-01 18:03:00,80.8,43.7,28.91,East,90,3.1,5.8,27,0.00,CLR,,0.00,WeatherDisplay:10.37,2013-07-01 23:03:00,
2013-07-01 18:05:00,80.4,44.3,28.91,East,90,1.6,2.9,28,0.00,CLR,,0.00,WeatherDisplay:10.37,2013-07-01 23:05:00,
2013-07-01 18:06:00,80.6,45.4,28.91,NE,45,2.4,3.5,29,0.00,CLR,,0.00,WeatherDisplay:10.37,2013-07-01 23:06:00,
2013-07-01 18:08:00,80.6,44.5,28.91,NE,45,3.1,5.8,28,0.00,CLR,,0.00,WeatherDisplay:10.37,2013-07-01 23:08:00,
2013-07-01 18:09:00,80.8,44.6,28.91,NNE,22,4.0,5.8,28,0.00,CLR,,0.00,WeatherDisplay:10.37,2013-07-01 23:09:00,
2013-07-01 18:10:00,80.8,44.6,28.91,NE,45,3.1,3.5,28,0.00,CLR,,0.00,WeatherDisplay:10.37,2013-07-01 23:10:00,
2013-07-01 18:11:00,80.8,44.6,28.91,NNE,22,2.4,3.5,28,0.00,CLR,,0.00,WeatherDisplay:10.37,2013-07-01 23:11:00,
2013-07-01 18:12:00,80.8,44.6,28.91,NNE,22,2.4,2.4,28,0.00,CLR,,0.00,WeatherDisplay:10.37,2013-07-01 23:12:00,
2013-07-01 18:13:00,80.8,44.6,28.91,NNE,22,1.6,2.3,28,0.00,CLR,,0.00,WeatherDisplay:10.37,2013-07-01 23:13:00,
2013-07-01 18:14:00,80.8,44.6,28.91,NNE,22,1.2,2.3,28,0.00,CLR,,0.00,WeatherDisplay:10.37,2013-07-01 23:14:00,
2013-07-01 18:16:00,81.5,46.2,28.91,NE,45,1.6,3.8,29,0.00,CLR,,0.00,WeatherDisplay:10.37,2013-07-01 23:16:00,
2013-07-01 18:17:00,81.5,45.2,28.91,ENE,68,2.9,5.8,28,0.00,CLR,,0.00,WeatherDisplay:10.37,2013-07-01 23:17:00,
2013-07-01 18:18:00,81.5,44.3,28.91,East,90,2.6,3.5,27,0.00,CLR,,0.00,WeatherDisplay:10.37,2013-07-01 23:18:00,
2013-07-01 18:20:00,81.3,44.1,28.91,North,0,2.0,2.4,27,0.00,CLR,,0.00,WeatherDisplay:10.37,2013-07-01 23:20:00,
2013-07-01 18:21:00,81.3,45.1,28.91,NE,45,1.4,2.4,28,0.00,CLR,,0.00,WeatherDisplay:10.37,2013-07-01 23:21:00,
2013-07-01 18:22:00,81.3,45.1,28.91,SE,135,1.4,2.4,28,0.00,CLR,,0.00,WeatherDisplay:10.37,2013-07-01 23:22:00,
2013-07-01 18:23:00,81.3,44.1,28.91,ENE,68,3.3,5.8,27,0.00,CLR,,0.00,WeatherDisplay:10.37,2013-07-01 23:23:00,
2013-07-01 18:25:00,81.3,44.1,28.88,NE,45,3.1,4.6,27,0.00,CLR,,0.00,WeatherDisplay:10.37,2013-07-01 23:25:00,
2013-07-01 18:26:00,81.3,44.1,28.88,East,90,0.0,3.5,27,0.00,CLR,,0.00,WeatherDisplay:10.37,2013-07-01 23:26:00,
2013-07-01 18:27:00,81.3,44.1,28.88,East,90,1.4,2.4,27,0.00,CLR,,0.00,WeatherDisplay:10.37,2013-07-01 23:27:00,
2013-07-01 18:28:00,81.3,44.1,28.88,East,90,2.2,2.3,27,0.00,CLR,,0.00,WeatherDisplay:10.37,2013-07-01 23:28:00,
2013-07-01 18:29:00,81.3,44.1,28.88,East,90,2.2,3.5,27,0.00,CLR,,0.00,WeatherDisplay:10.37,2013-07-01 23:29:00,
2013-07-01 18:30:00,81.5,45.2,28.88,ENE,68,0.9,1.2,28,0.00,CLR,,0.00,WeatherDisplay:10.37,2013-07-01 23:30:00,
2013-07-01 18:31:00,81.5,45.2,28.88,ENE,68,0.0,0.9,28,0.00,CLR,,0.00,WeatherDisplay:10.37,2013-07-01 23:31:00,
2013-07-01 18:33:00,81.7,46.3,28.88,ENE,68,0.0,1.2,29,0.00,CLR,,0.00,WeatherDisplay:10.37,2013-07-01 23:33:00,
2013-07-01 18:34:00,81.7,46.3,28.88,NE,45,0.0,1.6,29,0.00,CLR,,0.00,WeatherDisplay:10.37,2013-07-01 23:34:00,
2013-07-01 18:35:00,81.9,44.6,28.88,NE,45,3.8,5.8,27,0.00,CLR,,0.00,WeatherDisplay:10.37,2013-07-01 23:35:00,
2013-07-01 18:36:00,81.9,44.6,28.88,East,90,2.6,4.6,27,0.00,CLR,,0.00,WeatherDisplay:10.37,2013-07-01 23:36:00,
2013-07-01 18:39:00,81.7,45.4,28.88,North,0,1.2,2.3,28,0.00,CLR,,0.00,WeatherDisplay:10.37,2013-07-01 23:39:00,
2013-07-01 18:40:00,81.7,45.4,28.88,North,0,0.0,2.4,28,0.00,CLR,,0.00,WeatherDisplay:10.37,2013-07-01 23:40:00,
2013-07-01 18:41:00,81.7,45.4,28.88,North,0,0.0,2.3,28,0.00,CLR,,0.00,WeatherDisplay:10.37,2013-07-01 23:41:00,
2013-07-01 18:42:00,81.7,45.4,28.88,North,0,2.2,3.5,28,0.00,CLR,,0.00,WeatherDisplay:10.37,2013-07-01 23:42:00,
2013-07-01 18:44:00,82.0,46.6,28.88,North,0,0.0,1.6,29,0.00,CLR,,0.00,WeatherDisplay:10.37,2013-07-01 23:44:00,
2013-07-01 18:45:00,81.9,46.5,28.88,North,0,1.6,2.3,29,0.00,CLR,,0.00,WeatherDisplay:10.37,2013-07-01 23:45:00,
2013-07-01 18:47:00,81.5,46.2,28.88,NE,45,1.6,2.4,29,0.00,CLR,,0.00,WeatherDisplay:10.37,2013-07-01 23:47:00,
2013-07-01 18:50:00,81.5,45.2,28.88,NE,45,2.6,3.5,28,0.00,CLR,,0.00,WeatherDisplay:10.37,2013-07-01 23:50:00,
2013-07-01 18:51:00,81.5,45.2,28.88,ENE,68,2.6,3.5,28,0.00,CLR,,0.00,WeatherDisplay:10.37,2013-07-01 23:51:00,
2013-07-01 18:52:00,81.5,46.2,28.88,NNE,22,1.6,2.3,29,0.00,CLR,,0.00,WeatherDisplay:10.37,2013-07-01 23:52:00,
2013-07-01 18:55:00,81.3,46.0,28.88,NE,45,2.2,3.5,29,0.00,CLR,,0.00,WeatherDisplay:10.37,2013-07-01 23:55:00,
2013-07-01 18:56:00,81.3,46.0,28.88,East,90,3.1,5.4,29,0.00,CLR,,0.00,WeatherDisplay:10.37,2013-07-01 23:56:00,
2013-07-01 18:57:00,80.8,45.6,28.88,SE,135,3.6,5.8,29,0.00,CLR,,0.00,WeatherDisplay:10.37,2013-07-01 23:57:00,
2013-07-01 18:58:00,80.8,45.6,28.88,ENE,68,3.6,3.6,29,0.00,CLR,,0.00,WeatherDisplay:10.37,2013-07-01 23:58:00,
2013-07-01 19:00:00,80.6,45.4,28.88,East,90,2.4,3.5,29,0.00,CLR,,0.00,WeatherDisplay:10.37,2013-07-02 00:00:00,
2013-07-01 19:01:00,80.6,45.4,28.88,ESE,112,2.0,2.3,29,0.00,CLR,,0.00,WeatherDisplay:10.37,2013-07-02 00:01:00,
2013-07-01 19:03:00,80.6,45.4,28.88,ESE,112,2.0,2.3,29,0.00,CLR,,0.00,WeatherDisplay:10.37,2013-07-02 00:03:00,
2013-07-01 19:05:00,80.4,46.1,28.88,ENE,68,0.9,3.5,30,0.00,CLR,,0.00,WeatherDisplay:10.37,2013-07-02 00:05:00,
2013-07-01 19:06:00,80.4,46.1,28.88,East,90,2.0,3.5,30,0.00,CLR,,0.00,WeatherDisplay:10.37,2013-07-02 00:06:00,
2013-07-01 19:08:00,80.4,46.1,28.88,NE,45,1.6,3.6,30,0.00,CLR,,0.00,WeatherDisplay:10.37,2013-07-02 00:08:00,
2013-07-01 19:09:00,80.4,46.1,28.88,ENE,68,2.9,3.5,30,0.00,CLR,,0.00,WeatherDisplay:10.37,2013-07-02 00:09:00,
2013-07-01 19:11:00,79.9,45.7,28.91,ENE,68,1.6,2.6,30,0.00,CLR,,0.00,WeatherDisplay:10.37,2013-07-02 00:11:00,
2013-07-01 19:12:00,79.7,45.5,28.91,ENE,68,2.2,2.3,30,0.00,CLR,,0.00,WeatherDisplay:10.37,2013-07-02 00:12:00,
2013-07-01 19:13:00,79.5,45.4,28.91,ENE,68,0.0,2.3,30,0.00,CLR,,0.00,WeatherDisplay:10.37,2013-07-02 00:13:00,
2013-07-01 19:14:00,79.5,45.4,28.91,ENE,68,0.0,0.0,30,0.00,CLR,,0.00,WeatherDisplay:10.37,2013-07-02 00:14:00,
2013-07-01 19:16:00,78.8,44.7,28.91,ENE,68,0.0,0.0,30,0.00,CLR,,0.00,WeatherDisplay:10.37,2013-07-02 00:16:00,
2013-07-01 19:17:00,78.8,44.7,28.91,ENE,68,0.0,0.0,30,0.00,CLR,,0.00,WeatherDisplay:10.37,2013-07-02 00:17:00,
2013-07-01 19:18:00,78.6,45.4,28.91,ENE,68,0.0,0.0,31,0.00,CLR,,0.00,WeatherDisplay:10.37,2013-07-02 00:18:00,
2013-07-01 19:19:00,78.6,45.4,28.91,ENE,68,0.0,1.4,31,0.00,CLR,,0.00,WeatherDisplay:10.37,2013-07-02 00:19:00,
2013-07-01 19:22:00,78.6,45.4,28.91,ENE,68,0.0,1.2,31,0.00,CLR,,0.00,WeatherDisplay:10.37,2013-07-02 00:22:00,
2013-07-01 19:23:00,78.6,45.4,28.91,ENE,68,0.0,0.0,31,0.00,CLR,,0.00,WeatherDisplay:10.37,2013-07-02 00:23:00,
2013-07-01 19:24:00,78.6,45.4,28.91,ENE,68,0.0,0.0,31,0.00,CLR,,0.00,WeatherDisplay:10.37,2013-07-02 00:24:00,
2013-07-01 19:25:00,78.6,45.4,28.90,ENE,68,0.0,1.0,31,0.00,CLR,,0.00,WeatherDisplay:10.37,2013-07-02 00:25:00,
2013-07-01 19:27:00,77.4,45.2,28.88,NNE,22,0.0,0.0,32,0.00,CLR,,0.00,WeatherDisplay:10.37,2013-07-02 00:27:00,
2013-07-01 19:28:00,77.2,45.8,28.88,NNE,22,0.0,0.0,33,0.00,CLR,,0.00,WeatherDisplay:10.37,2013-07-02 00:28:00,
2013-07-01 19:29:00,77.0,45.7,28.88,NNE,22,0.0,0.0,33,0.00,CLR,,0.00,WeatherDisplay:10.37,2013-07-02 00:29:00,
2013-07-01 19:30:00,77.0,46.5,28.88,NNE,22,0.0,0.0,34,0.00,CLR,,0.00,WeatherDisplay:10.37,2013-07-02 00:30:00,
2013-07-01 19:32:00,76.6,47.7,28.88,NNE,22,0.0,0.0,36,0.00,CLR,,0.00,WeatherDisplay:10.37,2013-07-02 00:32:00,
2013-07-01 19:33:00,76.5,48.2,28.88,North,0,0.0,0.0,37,0.00,CLR,,0.00,WeatherDisplay:10.37,2013-07-02 00:33:00,
2013-07-01 19:34:00,76.3,47.4,28.88,North,0,0.0,0.0,36,0.00,CLR,,0.00,WeatherDisplay:10.37,2013-07-02 00:34:00,
2013-07-01 19:35:00,76.1,47.9,28.88,North,0,0.0,1.2,37,0.00,CLR,,0.00,WeatherDisplay:10.37,2013-07-02 00:35:00,
2013-07-01 19:37:00,75.7,48.3,28.88,NW,315,1.6,2.3,38,0.00,CLR,,0.00,WeatherDisplay:10.37,2013-07-02 00:37:00,
2013-07-01 19:39:00,75.4,49.4,28.88,WNW,292,2.0,2.3,40,0.00,CLR,,0.00,WeatherDisplay:10.37,2013-07-02 00:39:00,
2013-07-01 19:40:00,75.2,49.2,28.91,NW,315,1.4,2.3,40,0.00,CLR,,0.00,WeatherDisplay:10.37,2013-07-02 00:40:00,
2013-07-01 19:42:00,74.8,50.2,28.91,WNW,292,0.0,0.0,42,0.00,CLR,,0.00,WeatherDisplay:10.37,2013-07-02 00:42:00,
2013-07-01 19:44:00,74.5,49.9,28.91,WNW,292,0.0,0.0,42,0.00,CLR,,0.00,WeatherDisplay:10.37,2013-07-02 00:44:00,
2013-07-01 19:45:00,74.3,49.7,28.91,West,270,0.0,0.0,42,0.00,CLR,,0.00,WeatherDisplay:10.37,2013-07-02 00:45:00,
2013-07-01 19:48:00,73.9,50.0,28.91,WNW,292,1.6,2.3,43,0.00,CLR,,0.00,WeatherDisplay:10.37,2013-07-02 00:48:00,
2013-07-01 19:50:00,73.6,50.3,28.91,NW,315,2.0,2.3,44,0.00,CLR,,0.00,WeatherDisplay:10.37,2013-07-02 00:50:00,
2013-07-01 19:53:00,73.2,51.2,28.91,WNW,292,0.0,2.6,46,0.00,CLR,,0.00,WeatherDisplay:10.37,2013-07-02 00:53:00,
2013-07-01 19:56:00,72.9,51.4,28.91,WNW,292,0.0,0.0,47,0.00,CLR,,0.00,WeatherDisplay:10.37,2013-07-02 00:56:00,
2013-07-01 19:58:00,72.7,51.3,28.91,West,270,0.0,0.0,47,0.00,CLR,,0.00,WeatherDisplay:10.37,2013-07-02 00:58:00,
2013-07-01 19:59:00,72.5,51.1,28.91,West,270,0.0,0.0,47,0.00,CLR,,0.00,WeatherDisplay:10.37,2013-07-02 00:59:00,
2013-07-01 20:01:00,72.3,51.0,28.91,West,270,0.0,0.0,47,0.00,CLR,,0.00,WeatherDisplay:10.37,2013-07-02 01:01:00,
2013-07-01 20:02:00,72.3,51.5,28.91,West,270,0.0,0.0,48,0.00,CLR,,0.00,WeatherDisplay:10.37,2013-07-02 01:02:00,
2013-07-01 20:03:00,72.1,51.4,28.91,West,270,0.0,0.0,48,0.00,CLR,,0.00,WeatherDisplay:10.37,2013-07-02 01:03:00,
2013-07-01 20:04:00,72.1,51.4,28.91,West,270,0.0,0.0,48,0.00,CLR,,0.00,WeatherDisplay:10.37,2013-07-02 01:04:00,
2013-07-01 20:06:00,71.8,51.0,28.91,WNW,292,0.0,0.0,48,0.00,CLR,,0.00,WeatherDisplay:10.37,2013-07-02 01:06:00,
2013-07-01 20:07:00,71.8,51.0,28.91,WNW,292,0.0,0.0,48,0.00,CLR,,0.00,WeatherDisplay:10.37,2013-07-02 01:07:00,
2013-07-01 20:08:00,71.6,50.9,28.91,WNW,292,0.0,0.0,48,0.00,CLR,,0.00,WeatherDisplay:10.37,2013-07-02 01:08:00,
2013-07-01 20:09:00,71.6,50.9,28.91,WNW,292,0.0,0.0,48,0.00,CLR,,0.00,WeatherDisplay:10.37,2013-07-02 01:09:00,
2013-07-01 20:12:00,71.2,51.6,28.88,WNW,292,0.0,0.0,50,0.00,CLR,,0.00,WeatherDisplay:10.37,2013-07-02 01:12:00,
2013-07-01 20:13:00,71.1,52.5,28.88,NW,315,0.0,0.0,52,0.00,CLR,,0.00,WeatherDisplay:10.37,2013-07-02 01:13:00,
2013-07-01 20:14:00,70.9,52.4,28.88,NW,315,0.0,0.0,52,0.00,CLR,,0.00,WeatherDisplay:10.37,2013-07-02 01:14:00,
2013-07-01 20:17:00,70.5,52.0,28.88,NW,315,0.0,0.0,52,0.00,CLR,,0.00,WeatherDisplay:10.37,2013-07-02 01:17:00,
2013-07-01 20:18:00,70.3,52.4,28.88,NW,315,0.0,0.0,53,0.00,CLR,,0.00,WeatherDisplay:10.37,2013-07-02 01:18:00,
2013-07-01 20:20:00,70.3,52.4,28.88,NW,308,0.0,0.0,53,0.00,CLR,,0.00,WeatherDisplay:10.37,2013-07-02 01:20:00,
2013-07-01 20:22:00,70.0,52.1,28.88,North,0,0.0,0.0,53,0.00,CLR,,0.00,WeatherDisplay:10.37,2013-07-02 01:22:00,
2013-07-01 20:23:00,70.0,53.1,28.88,NNW,338,0.0,0.0,55,0.00,CLR,,0.00,WeatherDisplay:10.37,2013-07-02 01:23:00,
2013-07-01 20:24:00,69.8,53.4,28.88,North,0,0.0,0.9,56,0.00,CLR,,0.00,WeatherDisplay:10.37,2013-07-02 01:24:00,
2013-07-01 20:25:00,69.6,53.7,28.91,NNW,338,0.0,2.4,57,0.00,CLR,,0.00,WeatherDisplay:10.37,2013-07-02 01:25:00,
2013-07-01 20:26:00,69.6,54.2,28.91,North,0,2.0,2.3,58,0.00,CLR,,0.00,WeatherDisplay:10.37,2013-07-02 01:26:00,
2013-07-01 20:28:00,69.4,54.9,28.91,NW,315,2.4,2.9,60,0.00,CLR,,0.00,WeatherDisplay:10.37,2013-07-02 01:28:00,
2013-07-01 20:29:00,69.1,55.1,28.91,NNW,338,1.6,2.3,61,0.00,CLR,,0.00,WeatherDisplay:10.37,2013-07-02 01:29:00,
2013-07-01 20:30:00,69.1,54.6,28.91,WNW,292,1.6,2.3,60,0.00,CLR,,0.00,WeatherDisplay:10.37,2013-07-02 01:30:00,
2013-07-01 20:32:00,68.9,54.4,28.91,WNW,292,2.0,2.3,60,0.00,CLR,,0.00,WeatherDisplay:10.37,2013-07-02 01:32:00,
2013-07-01 20:33:00,68.9,54.4,28.91,WNW,292,0.0,0.0,60,0.00,CLR,,0.00,WeatherDisplay:10.37,2013-07-02 01:33:00,
2013-07-01 20:34:00,68.9,54.4,28.91,WNW,292,0.0,0.0,60,0.00,CLR,,0.00,WeatherDisplay:10.37,2013-07-02 01:34:00,
2013-07-01 20:35:00,68.9,54.4,28.91,WNW,292,0.0,0.0,60,0.00,CLR,,0.00,WeatherDisplay:10.37,2013-07-02 01:35:00,
2013-07-01 20:37:00,68.7,53.8,28.91,North,0,0.0,0.0,59,0.00,CLR,,0.00,WeatherDisplay:10.37,2013-07-02 01:37:00,
2013-07-01 20:39:00,68.5,54.1,28.91,North,0,0.0,0.0,60,0.00,CLR,,0.00,WeatherDisplay:10.37,2013-07-02 01:39:00,
2013-07-01 20:40:00,68.5,54.1,28.88,North,0,0.0,0.0,60,0.00,CLR,,0.00,WeatherDisplay:10.37,2013-07-02 01:40:00,
2013-07-01 20:42:00,68.5,54.6,28.88,North,0,0.0,0.0,61,0.00,CLR,,0.00,WeatherDisplay:10.37,2013-07-02 01:42:00,
2013-07-01 20:44:00,68.4,54.4,28.88,North,0,0.0,0.0,61,0.00,CLR,,0.00,WeatherDisplay:10.37,2013-07-02 01:44:00,
2013-07-01 20:45:00,68.4,54.4,28.88,North,0,0.0,0.0,61,0.00,CLR,,0.00,WeatherDisplay:10.37,2013-07-02 01:45:00,
2013-07-01 20:47:00,68.4,54.4,28.88,North,0,0.0,0.0,61,0.00,CLR,,0.00,WeatherDisplay:10.37,2013-07-02 01:47:00,
2013-07-01 20:49:00,68.4,54.4,28.88,North,0,0.0,0.0,61,0.00,CLR,,0.00,WeatherDisplay:10.37,2013-07-02 01:49:00,
2013-07-01 20:50:00,68.4,54.8,28.88,North,0,0.0,0.0,62,0.00,CLR,,0.00,WeatherDisplay:10.37,2013-07-02 01:50:00,
2013-07-01 20:52:00,68.2,55.1,28.88,West,270,0.0,2.4,63,0.00,CLR,,0.00,WeatherDisplay:10.37,2013-07-02 01:52:00,
2013-07-01 20:55:00,68.2,55.5,28.91,West,270,0.0,2.3,64,0.00,CLR,,0.00,WeatherDisplay:10.37,2013-07-02 01:55:00,
2013-07-01 20:56:00,68.0,55.4,28.91,West,270,0.0,0.0,64,0.00,CLR,,0.00,WeatherDisplay:10.37,2013-07-02 01:56:00,
2013-07-01 20:58:00,68.0,55.4,28.91,West,270,0.0,0.0,64,0.00,CLR,,0.00,WeatherDisplay:10.37,2013-07-02 01:58:00,
2013-07-01 21:00:00,67.8,55.6,28.91,West,270,0.0,0.0,65,0.00,CLR,,0.00,WeatherDisplay:10.37,2013-07-02 02:00:00,
2013-07-01 21:01:00,67.8,55.6,28.91,West,270,0.0,0.0,65,0.00,CLR,,0.00,WeatherDisplay:10.37,2013-07-02 02:01:00,
2013-07-01 21:02:00,67.8,55.6,28.91,West,270,0.0,0.0,65,0.00,CLR,,0.00,WeatherDisplay:10.37,2013-07-02 02:02:00,
2013-07-01 21:03:00,67.8,55.6,28.91,West,270,0.0,0.0,65,0.00,CLR,,0.00,WeatherDisplay:10.37,2013-07-02 02:03:00,
2013-07-01 21:06:00,67.5,54.9,28.91,West,270,0.0,0.0,64,0.00,CLR,,0.00,WeatherDisplay:10.37,2013-07-02 02:06:00,
2013-07-01 21:07:00,67.5,54.9,28.91,West,270,0.0,0.0,64,0.00,CLR,,0.00,WeatherDisplay:10.37,2013-07-02 02:07:00,
2013-07-01 21:08:00,67.3,54.7,28.91,WNW,292,0.0,2.0,64,0.00,CLR,,0.00,WeatherDisplay:10.37,2013-07-02 02:08:00,
2013-07-01 21:11:00,67.1,54.9,28.88,NW,315,0.0,0.0,65,0.00,CLR,,0.00,WeatherDisplay:10.37,2013-07-02 02:11:00,
2013-07-01 21:12:00,67.1,54.9,28.88,NW,315,0.0,0.0,65,0.00,CLR,,0.00,WeatherDisplay:10.37,2013-07-02 02:12:00,
2013-07-01 21:13:00,66.9,55.2,28.88,WNW,292,0.9,1.2,66,0.00,CLR,,0.00,WeatherDisplay:10.37,2013-07-02 02:13:00,
2013-07-01 21:16:00,66.7,55.4,28.88,NW,315,0.0,0.0,67,0.00,CLR,,0.00,WeatherDisplay:10.37,2013-07-02 02:16:00,
2013-07-01 21:17:00,66.7,55.4,28.88,NW,315,0.0,0.0,67,0.00,CLR,,0.00,WeatherDisplay:10.37,2013-07-02 02:17:00,
2013-07-01 21:19:00,66.6,55.3,28.88,NW,315,1.2,2.3,67,0.00,CLR,,0.00,WeatherDisplay:10.37,2013-07-02 02:19:00,
2013-07-01 21:21:00,66.4,56.3,28.88,NNW,338,3.1,4.6,70,0.00,CLR,,0.00,WeatherDisplay:10.37,2013-07-02 02:21:00,
2013-07-01 21:22:00,66.4,56.3,28.88,North,0,2.0,4.6,70,0.00,CLR,,0.00,WeatherDisplay:10.37,2013-07-02 02:22:00,
2013-07-01 21:23:00,66.4,56.3,28.88,North,0,2.0,4.6,70,0.00,CLR,,0.00,WeatherDisplay:10.37,2013-07-02 02:23:00,
2013-07-01 21:24:00,66.2,55.7,28.88,North,0,0.0,0.0,69,0.00,CLR,,0.00,WeatherDisplay:10.37,2013-07-02 02:24:00,
2013-07-01 21:27:00,66.0,56.0,28.88,North,0,1.6,3.5,70,0.00,CLR,,0.00,WeatherDisplay:10.37,2013-07-02 02:27:00,
2013-07-01 21:28:00,66.0,56.0,28.88,NNW,338,1.6,2.6,70,0.00,CLR,,0.00,WeatherDisplay:10.37,2013-07-02 02:28:00,
2013-07-01 21:29:00,66.0,56.3,28.88,North,0,2.4,3.5,71,0.00,CLR,,0.00,WeatherDisplay:10.37,2013-07-02 02:29:00,
2013-07-01 21:32:00,66.0,56.0,28.88,NW,315,2.2,2.3,70,0.00,CLR,,0.00,WeatherDisplay:10.37,2013-07-02 02:32:00,
2013-07-01 21:33:00,66.0,56.0,28.88,North,0,1.6,2.4,70,0.00,CLR,,0.00,WeatherDisplay:10.37,2013-07-02 02:33:00,
2013-07-01 21:34:00,66.0,56.0,28.88,NW,315,2.2,3.5,70,0.00,CLR,,0.00,WeatherDisplay:10.37,2013-07-02 02:34:00,
2013-07-01 21:37:00,66.0,56.0,28.88,NW,315,0.0,1.2,70,0.00,CLR,,0.00,WeatherDisplay:10.37,2013-07-02 02:37:00,
2013-07-01 21:38:00,66.0,55.6,28.88,NW,315,0.0,1.2,69,0.00,CLR,,0.00,WeatherDisplay:10.37,2013-07-02 02:38:00,
2013-07-01 21:39:00,65.8,55.4,28.91,NW,315,0.0,0.0,69,0.00,CLR,,0.00,WeatherDisplay:10.37,2013-07-02 02:39:00,
2013-07-01 21:42:00,65.7,55.2,28.91,NW,315,0.0,0.0,69,0.00,CLR,,0.00,WeatherDisplay:10.37,2013-07-02 02:42:00,
2013-07-01 21:43:00,65.7,55.2,28.91,NW,315,0.0,0.0,69,0.00,CLR,,0.00,WeatherDisplay:10.37,2013-07-02 02:43:00,
2013-07-01 21:44:00,65.5,55.4,28.91,West,270,0.0,0.0,70,0.00,CLR,,0.00,WeatherDisplay:10.37,2013-07-02 02:44:00,
2013-07-01 21:48:00,65.3,55.3,28.91,WNW,292,0.0,0.0,70,0.00,CLR,,0.00,WeatherDisplay:10.37,2013-07-02 02:48:00,
2013-07-01 21:49:00,65.1,55.1,28.91,WNW,292,1.4,2.4,70,0.00,CLR,,0.00,WeatherDisplay:10.37,2013-07-02 02:49:00,
2013-07-01 21:50:00,65.1,55.1,28.91,NW,315,1.4,2.6,70,0.00,CLR,,0.00,WeatherDisplay:10.37,2013-07-02 02:50:00,
2013-07-01 21:53:00,64.6,56.8,28.91,NW,315,2.4,3.5,76,0.00,CLR,,0.00,WeatherDisplay:10.37,2013-07-02 02:53:00,
2013-07-01 21:55:00,64.4,56.3,28.91,WNW,299,0.0,4.0,75,0.00,CLR,,0.00,WeatherDisplay:10.37,2013-07-02 02:55:00,
2013-07-01 21:56:00,64.4,56.7,28.91,West,270,0.9,2.3,76,0.00,CLR,,0.00,WeatherDisplay:10.37,2013-07-02 02:56:00,
2013-07-01 21:58:00,64.2,56.1,28.91,WNW,292,0.0,0.0,75,0.00,CLR,,0.00,WeatherDisplay:10.37,2013-07-02 02:58:00,
2013-07-01 22:00:00,64.0,56.0,28.91,West,270,0.0,0.0,75,0.00,CLR,,0.00,WeatherDisplay:10.37,2013-07-02 03:00:00,
2013-07-01 22:02:00,64.2,56.5,28.91,South,180,1.2,2.3,76,0.00,CLR,,0.00,WeatherDisplay:10.37,2013-07-02 03:02:00,
2013-07-01 22:03:00,64.0,56.3,28.91,South,180,0.0,0.0,76,0.00,CLR,,0.00,WeatherDisplay:10.37,2013-07-02 03:03:00,
2013-07-01 22:05:00,64.0,56.3,28.91,WNW,292,0.0,0.0,76,0.00,CLR,,0.00,WeatherDisplay:10.37,2013-07-02 03:05:00,
2013-07-01 22:07:00,63.9,55.8,28.91,NW,315,0.0,0.0,75,0.00,CLR,,0.00,WeatherDisplay:10.37,2013-07-02 03:07:00,
2013-07-01 22:08:00,63.9,55.8,28.91,WNW,292,0.0,2.6,75,0.00,CLR,,0.00,WeatherDisplay:10.37,2013-07-02 03:08:00,
2013-07-01 22:09:00,63.7,56.0,28.91,WNW,292,2.4,2.4,76,0.00,CLR,,0.00,WeatherDisplay:10.37,2013-07-02 03:09:00,
2013-07-01 22:11:00,63.5,56.2,28.91,WNW,292,2.2,2.3,77,0.00,CLR,,0.00,WeatherDisplay:10.37,2013-07-02 03:11:00,
2013-07-01 22:13:00,63.5,56.2,28.91,WNW,292,0.9,2.3,77,0.00,CLR,,0.00,WeatherDisplay:10.37,2013-07-02 03:13:00,
2013-07-01 22:14:00,63.3,56.0,28.91,West,270,0.0,0.0,77,0.00,CLR,,0.00,WeatherDisplay:10.37,2013-07-02 03:14:00,
2013-07-01 22:16:00,63.1,55.8,28.91,West,270,0.0,0.0,77,0.00,CLR,,0.00,WeatherDisplay:10.37,2013-07-02 03:16:00,
2013-07-01 22:18:00,63.1,55.8,28.91,West,270,0.0,0.0,77,0.00,CLR,,0.00,WeatherDisplay:10.37,2013-07-02 03:18:00,
2013-07-01 22:19:00,63.0,55.6,28.91,West,270,0.0,0.0,77,0.00,CLR,,0.00,WeatherDisplay:10.37,2013-07-02 03:19:00,
2013-07-01 22:20:00,63.0,55.6,28.91,West,270,0.0,0.0,77,0.00,CLR,,0.00,WeatherDisplay:10.37,2013-07-02 03:20:00,
2013-07-01 22:21:00,63.0,55.6,28.91,SW,225,0.0,0.0,77,0.00,CLR,,0.00,WeatherDisplay:10.37,2013-07-02 03:21:00,
2013-07-01 22:22:00,63.0,55.6,28.91,SW,225,0.0,0.0,77,0.00,CLR,,0.00,WeatherDisplay:10.37,2013-07-02 03:22:00,
2013-07-01 22:23:00,63.0,55.6,28.91,SW,225,0.0,0.0,77,0.00,CLR,,0.00,WeatherDisplay:10.37,2013-07-02 03:23:00,
2013-07-01 22:24:00,63.0,55.6,28.91,WNW,292,0.0,0.0,77,0.00,CLR,,0.00,WeatherDisplay:10.37,2013-07-02 03:24:00,
2013-07-01 22:25:00,62.8,55.5,28.91,WNW,292,0.0,0.0,77,0.00,CLR,,0.00,WeatherDisplay:10.37,2013-07-02 03:25:00,
2013-07-01 22:27:00,62.8,55.5,28.91,WNW,292,0.0,0.0,77,0.00,CLR,,0.00,WeatherDisplay:10.37,2013-07-02 03:27:00,
2013-07-01 22:28:00,62.8,55.5,28.91,WNW,292,0.0,0.0,77,0.00,CLR,,0.00,WeatherDisplay:10.37,2013-07-02 03:28:00,
2013-07-01 22:29:00,62.8,55.5,28.91,WNW,292,0.0,0.0,77,0.00,CLR,,0.00,WeatherDisplay:10.37,2013-07-02 03:29:00,
2013-07-01 22:30:00,62.8,55.5,28.91,WNW,292,0.0,0.0,77,0.00,CLR,,0.00,WeatherDisplay:10.37,2013-07-02 03:30:00,
2013-07-01 22:32:00,62.6,55.3,28.91,WNW,292,0.0,0.0,77,0.00,CLR,,0.00,WeatherDisplay:10.37,2013-07-02 03:32:00,
2013-07-01 22:33:00,62.6,55.3,28.91,WNW,292,0.0,0.0,77,0.00,CLR,,0.00,WeatherDisplay:10.37,2013-07-02 03:33:00,
2013-07-01 22:35:00,62.6,55.3,28.91,WNW,292,0.0,0.0,77,0.00,CLR,,0.00,WeatherDisplay:10.37,2013-07-02 03:35:00,
2013-07-01 22:37:00,62.8,55.8,28.91,WNW,292,0.0,0.0,78,0.00,CLR,,0.00,WeatherDisplay:10.37,2013-07-02 03:37:00,
2013-07-01 22:38:00,62.8,55.8,28.91,WNW,292,0.0,0.0,78,0.00,CLR,,0.00,WeatherDisplay:10.37,2013-07-02 03:38:00,
2013-07-01 22:40:00,62.8,55.5,28.91,NW,315,0.0,0.0,77,0.00,CLR,,0.00,WeatherDisplay:10.37,2013-07-02 03:40:00,
2013-07-01 22:41:00,62.8,55.5,28.91,NW,315,0.0,0.0,77,0.00,CLR,,0.00,WeatherDisplay:10.37,2013-07-02 03:41:00,
2013-07-01 22:42:00,63.0,55.6,28.91,NW,315,0.0,0.0,77,0.00,CLR,,0.00,WeatherDisplay:10.37,2013-07-02 03:42:00,
2013-07-01 22:43:00,63.0,55.6,28.91,WNW,292,0.0,0.0,77,0.00,CLR,,0.00,WeatherDisplay:10.37,2013-07-02 03:43:00,
2013-07-01 22:46:00,63.0,55.6,28.91,West,270,0.0,0.0,77,0.00,CLR,,0.00,WeatherDisplay:10.37,2013-07-02 03:46:00,
2013-07-01 22:48:00,63.1,55.8,28.91,West,270,0.0,0.0,77,0.00,CLR,,0.00,WeatherDisplay:10.37,2013-07-02 03:48:00,
2013-07-01 22:49:00,63.1,56.2,28.91,West,270,0.0,0.0,78,0.00,CLR,,0.00,WeatherDisplay:10.37,2013-07-02 03:49:00,
2013-07-01 22:51:00,63.1,56.2,28.91,West,270,0.0,0.0,78,0.00,CLR,,0.00,WeatherDisplay:10.37,2013-07-02 03:51:00,
2013-07-01 22:52:00,63.1,56.2,28.91,West,270,0.0,0.0,78,0.00,CLR,,0.00,WeatherDisplay:10.37,2013-07-02 03:52:00,
2013-07-01 22:53:00,63.1,56.2,28.91,South,180,0.0,0.0,78,0.00,CLR,,0.00,WeatherDisplay:10.37,2013-07-02 03:53:00,
2013-07-01 22:54:00,63.1,56.2,28.91,South,180,0.0,0.0,78,0.00,CLR,,0.00,WeatherDisplay:10.37,2013-07-02 03:54:00,
2013-07-01 22:56:00,63.3,56.3,28.91,South,180,0.0,0.0,78,0.00,CLR,,0.00,WeatherDisplay:10.37,2013-07-02 03:56:00,
2013-07-01 22:57:00,63.1,56.2,28.91,South,180,0.0,0.0,78,0.00,CLR,,0.00,WeatherDisplay:10.37,2013-07-02 03:57:00,
2013-07-01 22:58:00,63.1,56.2,28.91,South,180,0.0,0.0,78,0.00,CLR,,0.00,WeatherDisplay:10.37,2013-07-02 03:58:00,
2013-07-01 22:59:00,63.1,56.2,28.91,South,180,0.0,0.0,78,0.00,CLR,,0.00,WeatherDisplay:10.37,2013-07-02 03:59:00,
2013-07-01 23:01:00,63.1,56.2,28.91,South,180,0.0,0.0,78,0.00,CLR,,0.00,WeatherDisplay:10.37,2013-07-02 04:01:00,
2013-07-01 23:06:00,63.1,56.2,28.91,South,180,0.0,0.0,78,0.00,CLR,,0.00,WeatherDisplay:10.37,2013-07-02 04:06:00,
2013-07-01 23:07:00,63.1,56.2,28.91,South,180,0.0,0.0,78,0.00,CLR,,0.00,WeatherDisplay:10.37,2013-07-02 04:07:00,
2013-07-01 23:08:00,63.1,56.5,28.91,South,180,0.0,0.0,79,0.00,CLR,,0.00,WeatherDisplay:10.37,2013-07-02 04:08:00,
2013-07-01 23:11:00,63.1,56.5,28.91,South,180,0.0,0.0,79,0.00,CLR,,0.00,WeatherDisplay:10.37,2013-07-02 04:11:00,
2013-07-01 23:12:00,63.1,56.5,28.91,South,180,0.0,0.0,79,0.00,CLR,,0.00,WeatherDisplay:10.37,2013-07-02 04:12:00,
2013-07-01 23:13:00,63.1,56.5,28.91,South,180,0.0,0.0,79,0.00,CLR,,0.00,WeatherDisplay:10.37,2013-07-02 04:13:00,
2013-07-01 23:16:00,63.1,56.5,28.91,South,180,0.0,0.0,79,0.00,CLR,,0.00,WeatherDisplay:10.37,2013-07-02 04:16:00,
2013-07-01 23:17:00,63.1,56.5,28.91,South,180,0.0,0.0,79,0.00,CLR,,0.00,WeatherDisplay:10.37,2013-07-02 04:17:00,
2013-07-01 23:18:00,63.0,56.0,28.91,South,180,0.0,0.0,78,0.00,CLR,,0.00,WeatherDisplay:10.37,2013-07-02 04:18:00,
2013-07-01 23:22:00,63.0,56.3,28.91,South,180,0.0,0.0,79,0.00,CLR,,0.00,WeatherDisplay:10.37,2013-07-02 04:22:00,
2013-07-01 23:23:00,63.0,56.3,28.91,South,180,0.0,0.0,79,0.00,CLR,,0.00,WeatherDisplay:10.37,2013-07-02 04:23:00,
2013-07-01 23:27:00,62.6,55.6,28.94,SW,225,0.0,0.0,78,0.00,CLR,,0.00,WeatherDisplay:10.37,2013-07-02 04:27:00,
2013-07-01 23:28:00,62.6,55.6,28.94,NNW,338,0.0,0.0,78,0.00,CLR,,0.00,WeatherDisplay:10.37,2013-07-02 04:28:00,
2013-07-01 23:32:00,62.4,55.8,28.94,NW,315,0.0,0.0,79,0.00,CLR,,0.00,WeatherDisplay:10.37,2013-07-02 04:32:00,
2013-07-01 23:33:00,62.4,55.8,28.94,WNW,292,0.0,0.0,79,0.00,CLR,,0.00,WeatherDisplay:10.37,2013-07-02 04:33:00,
2013-07-01 23:34:00,62.2,55.6,28.94,WNW,292,0.0,0.0,79,0.00,CLR,,0.00,WeatherDisplay:10.37,2013-07-02 04:34:00,
2013-07-01 23:37:00,62.2,56.0,28.94,WNW,292,0.0,0.0,80,0.00,CLR,,0.00,WeatherDisplay:10.37,2013-07-02 04:37:00,
2013-07-01 23:38:00,62.1,55.8,28.94,WNW,292,0.0,0.0,80,0.00,CLR,,0.00,WeatherDisplay:10.37,2013-07-02 04:38:00,
2013-07-01 23:39:00,62.1,55.8,28.94,WNW,292,0.0,0.0,80,0.00,CLR,,0.00,WeatherDisplay:10.37,2013-07-02 04:39:00,
2013-07-01 23:42:00,61.9,55.6,28.94,NW,315,0.0,0.0,80,0.00,CLR,,0.00,WeatherDisplay:10.37,2013-07-02 04:42:00,
2013-07-01 23:43:00,61.9,55.6,28.94,NW,315,0.0,0.0,80,0.00,CLR,,0.00,WeatherDisplay:10.37,2013-07-02 04:43:00,
2013-07-01 23:44:00,61.9,55.6,28.94,NW,315,0.0,0.0,80,0.00,CLR,,0.00,WeatherDisplay:10.37,2013-07-02 04:44:00,
2013-07-01 23:48:00,61.7,55.8,28.94,NW,315,0.0,0.0,81,0.00,CLR,,0.00,WeatherDisplay:10.37,2013-07-02 04:48:00,
2013-07-01 23:49:00,61.7,55.8,28.94,NW,315,0.0,0.0,81,0.00,CLR,,0.00,WeatherDisplay:10.37,2013-07-02 04:49:00,
2013-07-01 23:50:00,61.5,55.6,28.94,NW,315,0.0,0.0,81,0.00,CLR,,0.00,WeatherDisplay:10.37,2013-07-02 04:50:00,
2013-07-01 23:53:00,61.5,55.6,28.94,NW,315,0.0,0.0,81,0.00,CLR,,0.00,WeatherDisplay:10.37,2013-07-02 04:53:00,
2013-07-01 23:54:00,61.5,55.6,28.94,NW,315,0.0,0.0,81,0.00,CLR,,0.00,WeatherDisplay:10.37,2013-07-02 04:54:00,
2013-07-01 23:55:00,61.5,56.0,28.91,NW,315,0.0,0.0,82,0.00,CLR,,0.00,WeatherDisplay:10.37,2013-07-02 04:55:00,
2013-07-01 23:58:00,61.3,55.5,28.91,NW,315,0.0,0.0,81,0.00,CLR,,0.00,WeatherDisplay:10.37,2013-07-02 04:58:00,
2013-07-01 23:59:00,61.3,55.5,28.91,NW,315,0.0,0.0,81,0.00,CLR,,0.00,WeatherDisplay:10.37,2013-07-02 04:59:00,